Location: *
(84.5970°S, 75.4000°W)
Time: 15:19:51
(UTC+00:00)

Daily predictions for brighter satellites

Satellite Brightness Start Highest point End
(mag) Time Altitude Azimuth Time Altitude Azimuth Time Altitude Azimuth
Cosmos 1743 3.3 12:03:58 40° NW 12:03:58 40° NW 12:07:16 10° N
Cosmos 1908 3.3 12:03:38 52° WNW 12:04:14 61° NNW 12:07:58 10° ENE
Cosmos 2061 Rocket 4.3 12:02:28 22° SSW 12:06:21 47° W 12:12:28 10° NNW
Cosmos 1953 2.5 12:05:33 43° NW 12:06:39 65° N 12:10:34 10° E
Resurs 01 Rocket 2.1 12:02:35 10° N 12:06:53 41° WNW 12:07:10 41° W
YAOGAN 1 3.8 12:03:02 10° NNW 12:05:36 26° NW 12:05:36 26° NW
USA 281 4.2 12:01:35 10° NNE 12:07:31 33° NNW 12:10:30 23° WNW
IRIDIUM 104 4.4 12:07:32 35° SW 12:09:51 84° SE 12:15:13 10° NE
USA 186 3.9 12:09:31 10° N 12:10:31 17° NNW 12:10:31 17° NNW
Cosmos 1455 Rocket 3.8 12:08:06 10° NNW 12:12:33 56° NE 12:16:59 10° ESE
Cosmos 1634 Rocket 4.1 12:09:52 32° SW 12:12:45 60° WNW 12:18:57 10° NNE
Cosmos 1943 Rocket 4.3 12:16:33 11° NW 12:16:33 11° NW 12:16:50 10° NW
SeaSat 1 4.4 12:11:54 10° NNW 12:13:45 14° NW 12:13:45 14° NW
Okean O Rocket 2.1 12:11:39 10° N 12:15:51 39° WNW 12:16:05 39° WNW
Nadezhda 3 Rocket 4.2 12:12:26 10° NW 12:18:41 72° NNE 12:24:55 10° ESE
IRIDIUM 114 4.3 12:16:38 35° SW 12:19:01 86° SE 12:24:22 10° NE
Cosmos 2233 Rocket 4.2 12:16:11 25° SSW 12:19:31 45° W 12:25:23 10° NNW
Cosmos 1300 Rocket 3.8 12:17:40 30° WNW 12:19:48 67° NNE 12:24:18 10° E
Cosmos 1743 Rocket 3.8 12:19:06 43° W 12:20:10 54° NW 12:24:33 10° NNE
Cosmos 1726 2.8 12:20:50 32° NNW 12:20:50 32° NNW 12:23:12 10° N
IDEFIX/ARIANE 42P 4.2 12:19:46 19° SSW 12:20:37 19° S 12:24:22 10° SE
ADEOS II 3.6 12:20:39 19° SSW 12:20:59 19° S 12:24:48 10° SE
Cosmos 2151 Rocket 4.0 12:19:53 19° NW 12:22:59 63° NNE 12:27:28 10° ESE
COSMO-SKYMED 1 4.0 12:19:38 10° SE 12:23:53 42° ENE 12:28:08 10° N
Resurs 1-3 4.4 12:19:54 10° NNW 12:23:38 34° WNW 12:23:38 34° WNW
Sich 1 Rocket 4.0 12:22:10 19° NW 12:25:22 64° NNE 12:29:52 10° ESE
ALOS 2 2.9 12:21:26 10° ENE 12:25:54 62° NNW 12:27:27 38° W
Cosmos 1441 Rocket 3.7 12:25:16 39° WNW 12:26:11 49° NNW 12:29:57 10° ENE
ARGOS Delta rocket 4.2 12:21:58 10° NNE 12:27:13 61° WNW 12:29:27 35° WSW
Cosmos 1758 3.5 12:26:05 42° WNW 12:27:16 65° NNW 12:31:20 10° ENE
IRIDIUM 103 4.3 12:25:47 34° SW 12:28:12 87° SE 12:33:34 10° NE
Cosmos 2034 Rocket 4.2 12:25:06 29° SW 12:28:14 55° WNW 12:34:26 10° N
MOZ.5/SAFIR/RUBIN 5/SL-8 4.2 12:23:37 10° E 12:28:23 63° N 12:31:09 25° WNW
Cosmos 1408 Rocket 3.9 12:28:18 42° W 12:29:10 49° NW 12:33:25 10° NNE
Spot 2 Rocket 3.9 12:26:00 10° NNE 12:31:04 50° NW 12:32:46 36° WSW
Meteor 2-20 Rocket 4.4 12:28:58 29° W 12:32:06 74° N 12:37:54 10° ENE
Cosmos 2228 3.9 12:28:52 10° NNW 12:33:05 50° NE 12:37:17 10° SE
Cosmos 1869 4.2 12:29:54 10° NNW 12:33:38 48° NE 12:37:25 10° ESE
Okean 2 Rocket 3.5 12:31:38 17° NW 12:35:06 65° NNE 12:39:41 10° ESE
Cosmos 1975 3.1 12:35:03 45° W 12:35:45 52° NW 12:39:35 10° NNE
MetOp-A 3.9 12:34:05 10° NNE 12:38:04 45° NW 12:38:48 40° WNW
CARTOSAT-1 4.1 12:34:03 10° N 12:38:09 38° WNW 12:38:23 37° W
Cosmos 1300 2.8 12:38:39 46° WNW 12:39:31 62° NNW 12:43:10 10° ENE
UNK 4.4 12:35:05 10° ESE 12:39:42 57° NNE 12:44:21 10° NW
Meteor 2-10 Rocket 3.8 12:39:21 30° W 12:41:47 59° NNW 12:46:48 10° ENE
Spot 2 4.4 12:39:20 10° NE 12:43:28 52° NNW 12:44:47 37° W
Cosmos 2181 Rocket 4.1 12:38:33 16° WNW 12:43:39 77° NNE 12:49:58 10° E
SJ-6B 4.0 12:40:15 10° NNW 12:42:57 28° WNW 12:42:57 28° WNW
Cosmos 1733 3.5 12:43:39 42° WNW 12:43:54 43° NW 12:47:25 10° NNE
Cosmos 1536 3.3 12:44:49 41° W 12:45:20 44° WNW 12:49:11 10° NNE
Cosmos 2100 Rocket 4.4 12:40:14 10° S 12:46:03 38° WSW 12:51:55 10° NW
Landsat 4 4.3 12:43:00 10° N 12:46:21 36° WNW 12:46:22 36° WNW
SPOT 3 Rocket 4.0 12:41:17 10° NNE 12:46:28 49° NW 12:48:24 34° WSW
IRIDIUM 106 4.3 12:44:03 33° SW 12:46:32 90° SE 12:51:54 10° NE
Meteor 1-28 Rocket 3.6 12:43:06 10° ESE 12:46:50 60° NNE 12:48:57 24° NW
Cosmos 1766 3.5 12:46:24 44° W 12:47:10 53° NW 12:50:55 10° NE
CZ-2C R/B 3.1 12:42:08 10° E 12:47:47 66° NNE 12:52:24 15° WNW
ASTEX 1 3.4 12:42:56 10° SE 12:48:01 72° SSW 12:51:26 21° WNW
Cosmos 1805 3.6 12:47:31 43° WNW 12:48:04 47° NW 12:51:44 10° NNE
ARIANE 5 R/B 3.0 12:45:48 10° NE 12:50:22 55° NW 12:52:00 36° W
Cosmos 2173 Rocket 4.4 12:44:45 10° S 12:50:28 38° WSW 12:56:15 10° NW
Cosmos 1340 3.4 12:51:19 33° NW 12:51:20 33° NW 12:54:32 10° NNE
Terra 2.3 12:46:56 10° NNE 12:51:37 46° WNW 12:53:02 36° WSW
Okean 1 Rocket 3.5 12:48:08 13° NW 12:52:09 64° NNE 12:56:41 10° ESE
Ariane Rocket 3.4 12:49:16 10° NNE 12:54:14 47° WNW 12:56:00 34° WSW
Cosmos 1980 Rocket 4.2 12:52:22 10° NW 12:56:27 21° N 13:00:33 10° NE
Cosmos 1470 3.0 12:57:02 42° W 12:58:00 56° NNW 13:01:49 10° NE
MOS 1 Rocket 3.5 12:54:35 10° NNE 12:58:51 48° WNW 13:00:00 38° W
CZ-2C R/B 4.1 13:01:41 17° S 13:01:41 17° S 13:04:09 10° SSE
Okean-O 3.3 12:57:11 10° N 13:01:24 38° WNW 13:02:08 35° W
Cosmos 1500 Rocket 4.0 13:02:58 37° WSW 13:04:09 47° WNW 13:08:31 10° NNE
CZ-4B R/B 4.5 13:02:01 10° NW 13:03:39 19° WNW 13:03:39 19° WNW
Cosmos 1782 Rocket 3.8 13:03:11 28° WNW 13:05:30 69° N 13:10:01 10° E
Cosmos 1812 4.1 13:02:10 10° N 13:05:38 38° ENE 13:09:06 10° SE
Cosmos 1908 Rocket 3.8 13:03:40 31° W 13:05:43 68° N 13:10:09 10° ENE
Cosmos 1725 Rocket 4.4 13:01:51 16° S 13:06:22 39° WSW 13:12:07 10° NW
S3M 4.1 13:04:15 29° WSW 13:07:37 73° NNW 13:13:49 10° NE
H-2A R/B 3.7 13:10:41 17° S 13:10:41 17° S 13:12:33 10° SSE
H-2A R/B 4.2 13:08:07 12° S 13:09:58 16° SE 13:12:32 10° ESE
USA 59 Rocket 3.7 13:03:08 10° WNW 13:09:58 20° NNW 13:16:20 10° N
Cosmos 1733 Rocket 3.3 13:11:02 33° W 13:12:59 66° NNW 13:17:29 10° ENE
Cosmos 1606 3.4 13:10:50 10° NW 13:14:29 52° NE 13:18:07 10° ESE
Cosmos 1727 Rocket 4.4 13:08:06 10° NW 13:14:30 69° NE 13:20:53 10° ESE
Cosmos 1470 Rocket 3.9 13:13:13 36° W 13:14:42 55° NW 13:19:03 10° NNE
Cosmos 1805 Rocket 4.1 13:13:47 36° WSW 13:15:01 46° WNW 13:19:20 10° N
Cosmos-2242 4.4 13:11:21 10° N 13:15:26 41° ENE 13:19:30 10° SE
Cosmos 1553 Rocket 4.2 13:12:00 29° WSW 13:15:30 69° NW 13:21:59 10° NE
Cosmos 1346 Rocket 3.3 13:14:32 31° WNW 13:16:05 51° NNW 13:19:54 10° ENE
Cosmos 1869 Rocket 3.9 13:14:35 34° W 13:16:24 62° NNW 13:20:53 10° NE
ERS-1 Rocket 3.5 13:11:55 10° N 13:16:48 43° WNW 13:18:33 32° WSW
CZ-4B R/B 3.9 13:11:46 10° NNW 13:17:06 36° W 13:18:46 31° WSW
SL-16 R/B 3.1 13:13:47 10° E 13:20:00 60° NNE 13:26:14 10° WNW
Okean 3 Rocket 4.2 13:19:23 35° WSW 13:20:26 41° WNW 13:24:45 10° N
Cosmos 1544 Rocket 4.2 13:16:03 10° NW 13:20:28 59° NE 13:24:51 10° ESE
Cosmos 1782 4.3 13:17:05 10° N 13:20:44 37° ENE 13:24:24 10° SE
CZ-4B R/B 4.5 13:16:23 10° NW 13:20:13 27° W 13:20:13 27° W
Cosmos 2315 Rocket 4.2 13:17:10 27° WSW 13:20:53 73° NNW 13:27:15 10° NE
CZ-2D R/B 3.7 13:19:53 18° S 13:20:55 19° S 13:24:39 10° SE
Cosmos 1633 Rocket 3.4 13:19:45 36° WSW 13:21:13 52° NW 13:25:32 10° NNE
Helios 1A Rocket 3.3 13:17:44 10° ENE 13:21:44 58° N 13:23:39 28° WNW
Cosmos 1459 Rocket 4.5 13:16:32 10° S 13:22:09 35° WSW 13:27:42 10° WNW
Iridium 4 Rocket 3.6 13:17:07 10° NW 13:22:34 84° SW 13:28:27 10° SE
Cosmos 1802 Rocket 4.5 13:18:19 12° S 13:23:31 36° WSW 13:29:07 10° NW
SPOT 5 3.6 13:18:39 10° N 13:23:49 43° WNW 13:25:48 31° WSW
Cosmos 1666 Rocket 4.0 13:22:17 35° WSW 13:23:49 51° NW 13:28:15 10° NNE
Cosmos 1238 Rocket 3.8 13:21:08 10° N 13:24:02 38° ENE 13:27:10 10° SE
Cosmos 1464 Rocket 4.3 13:21:22 27° SSW 13:24:19 45° W 13:30:16 10° NNW
Resurs 1-4 Rocket 3.7 13:23:08 18° S 13:24:20 20° SSE 13:28:16 10° ESE
H-2A R/B 2.8 13:21:49 10° NNE 13:25:35 46° NW 13:26:42 35° W
Sich 1 3.6 13:26:37 36° WSW 13:27:43 43° WNW 13:31:50 10° N
Spot 4 4.3 13:22:57 10° NE 13:27:50 55° NW 13:30:05 30° WSW
Cosmos 1455 2.4 13:28:50 35° W 13:30:10 62° NNW 13:33:48 10° ENE
SL-16 R/B 4.4 13:28:15 10° NW 13:32:28 21° N 13:36:40 10° NE
GP-B 3.6 13:30:46 32° SSW 13:32:34 51° SE 13:37:00 10° ENE
Cosmos 405 Rocket 3.5 13:29:24 14° WNW 13:32:37 51° NNE 13:36:21 10° E
Cosmos 2016 Rocket 4.5 13:29:56 16° S 13:34:17 36° WSW 13:39:53 10° NW
Cosmos 2098 Rocket 3.5 13:30:25 18° W 13:34:31 74° N 13:38:58 10° E
Cosmos 2369 Rocket 4.1 13:34:19 14° W 13:34:53 14° WNW 13:37:46 10° NW
Nadezhda 1 Rocket 4.1 13:31:02 22° W 13:35:13 77° NNW 13:41:23 10° ENE
CZ-4 R/B 2.7 13:31:58 10° NW 13:34:33 24° WNW 13:34:33 24° WNW
Cosmos 1743 3.7 13:38:19 30° W 13:38:19 30° W 13:41:30 10° NNW
ALOS 4.0 13:38:51 17° S 13:38:51 17° S 13:41:53 10° SE
Cosmos 1908 3.6 13:37:49 37° W 13:38:55 51° NW 13:42:36 10° NE
Cosmos 1933 Rocket 4.0 13:38:09 33° WSW 13:39:59 56° NW 13:44:26 10° NE
USA 81 4.2 13:34:39 10° NW 13:40:02 81° NE 13:45:27 10° SE
Cosmos 1766 Rocket 4.3 13:40:13 33° WSW 13:40:52 34° W 13:44:54 10° NNW
SPOT 1/Viking Rocket 4.3 13:36:27 10° NW 13:41:13 33° W 13:42:16 30° WSW
Cosmos 1953 2.5 13:40:40 31° W 13:42:22 63° NNW 13:46:17 10° ENE
CSL-04 Rocket 4.4 13:37:27 10° NNW 13:42:38 35° W 13:44:20 29° SW
ADEOS 4.4 13:38:11 10° NW 13:42:46 28° WSW 13:43:00 28° WSW
YAOGAN 1 4.1 13:40:30 10° NW 13:42:37 20° W 13:42:37 20° W
Resurs 01 Rocket 2.5 13:40:14 10° NNW 13:44:16 31° W 13:44:39 30° WSW
USA 186 4.0 13:42:39 10° NW 13:43:19 14° NW 13:43:19 14° NW
Meteor 1-11 Rocket 4.4 13:43:25 29° WSW 13:46:01 44° WNW 13:51:35 10° N
ADEOS Rocket 3.6 13:41:17 10° NW 13:46:31 30° WSW 13:47:21 29° SW
Cosmos 2279 Rocket 4.3 13:44:12 28° SW 13:47:24 52° WNW 13:53:32 10° N
Cosmos 2221 4.0 13:44:18 10° N 13:48:19 38° ENE 13:52:20 10° SE
Cosmos 1626 4.2 13:46:37 10° ENE 13:48:59 18° ESE 13:51:14 11° SSE
Cosmos 1455 Rocket 3.5 13:45:37 10° WNW 13:50:07 66° NNE 13:54:37 10° E
SL-08 R/B 4.4 13:46:01 10° SE 13:50:35 46° NE 13:55:06 10° NNW
IRIDIUM 104 4.3 13:48:00 30° SSW 13:50:44 79° WNW 13:56:05 10° NNE
Cosmos 1726 3.2 13:53:19 25° WNW 13:53:19 25° WNW 13:55:36 10° NNW
Okean O Rocket 2.5 13:49:11 10° NNW 13:53:06 29° W 13:53:26 29° WSW
USA 281 4.4 13:48:10 10° N 13:53:48 28° NW 13:57:21 18° W
Cosmos 1300 Rocket 3.9 13:54:39 23° W 13:57:23 67° NNW 14:01:53 10° ENE
Cosmos 1743 Rocket 4.2 13:56:11 32° WSW 13:57:33 41° WNW 14:01:46 10° N
Cosmos 1606 Rocket 4.3 13:53:11 10° NW 13:57:34 57° NE 14:01:56 10° ESE
Cosmos 1634 Rocket 4.3 13:54:32 27° SW 13:57:37 48° W 14:03:38 10° NNW
IRIDIUM 114 4.4 13:57:07 30° SSW 13:59:52 77° WNW 14:05:12 10° NNE
COSMO-SKYMED 1 3.4 13:56:20 10° ESE 14:00:44 54° NE 14:05:08 10° NW
Cosmos 2151 Rocket 3.9 13:57:13 15° WNW 14:00:54 68° N 14:05:24 10° E
Cosmos 1441 Rocket 4.0 13:59:39 29° W 14:01:06 42° NW 14:04:46 10° NNE
IDEFIX/ARIANE 42P 4.1 14:00:31 18° S 14:02:03 20° SSE 14:05:55 10° ESE
ADEOS II 3.6 14:01:31 19° S 14:02:34 20° SSE 14:06:25 10° ESE
ALOS 2 3.1 13:58:21 10° NNE 14:02:47 52° NW 14:04:50 29° WSW
Cosmos 1758 3.7 14:01:18 31° W 14:03:02 56° NW 14:07:03 10° NE
Sich 1 Rocket 3.9 13:59:35 14° W 14:03:22 69° N 14:07:54 10° E
Nadezhda 3 Rocket 4.1 13:57:47 10° WNW 14:04:03 78° N 14:10:19 10° E
Cosmos 2058 Rocket 3.9 14:00:25 10° NNW 14:04:46 52° NE 14:09:07 10° SE
MOZ.5/SAFIR/RUBIN 5/SL-8 4.2 14:01:32 10° ENE 14:06:17 62° NNW 14:09:41 19° W
Cosmos 1408 Rocket 4.3 14:05:18 31° WSW 14:06:24 37° W 14:10:27 10° NNW
ARGOS Delta rocket 4.5 14:01:24 10° N 14:06:31 48° W 14:08:57 29° SW
IRIDIUM 103 4.4 14:06:15 29° SSW 14:09:01 76° WNW 14:14:21 10° NNE
Cosmos 1869 3.8 14:05:12 10° NW 14:09:02 60° NNE 14:12:54 10° ESE
Cosmos 2228 3.5 14:05:49 10° NW 14:10:08 62° NNE 14:14:24 10° ESE
Spot 2 Rocket 4.2 14:06:03 10° N 14:10:55 39° WNW 14:12:54 28° WSW
Cosmos 1975 3.5 14:10:14 32° WSW 14:11:16 39° WNW 14:14:57 10° N
Okean 2 Rocket 3.4 14:08:58 14° W 14:13:00 69° N 14:17:35 10° E
Cosmos 2034 Rocket 4.5 14:09:50 26° SSW 14:13:01 43° W 14:18:59 10° NNW
Cosmos 1300 3.1 14:12:41 32° W 14:14:04 52° NW 14:17:41 10° NE
MetOp-A 4.3 14:11:56 10° N 14:15:42 34° WNW 14:16:47 29° WSW
UNK 4.2 14:12:39 10° E 14:17:18 63° N 14:21:59 10° WNW
Cosmos 1733 4.0 14:17:35 30° W 14:18:04 31° WNW 14:21:22 10° NNW
SJ-6B 4.4 14:15:47 10° WNW 14:18:02 21° W 14:18:02 21° W
Meteor 1-28 Rocket 3.5 14:16:51 10° E 14:20:34 64° N 14:23:16 18° W
Cosmos 1536 3.7 14:20:05 30° WSW 14:20:47 32° W 14:24:23 10° NNW
Cosmos 1726 Rocket 4.2 14:17:14 10° NW 14:21:39 58° NE 14:26:01 10° ESE
Cosmos 1766 3.9 14:21:00 32° WSW 14:22:09 41° WNW 14:25:45 10° N
Helios 1A 4.0 14:18:26 10° ESE 14:22:32 47° NE 14:26:36 10° NNW
Cosmos 1805 4.1 14:22:02 31° W 14:22:51 35° WNW 14:26:21 10° N
Meteor 2-10 Rocket 4.0 14:20:28 23° WSW 14:23:29 52° NW 14:28:25 10° NE
Cosmos 1340 3.8 14:24:42 24° W 14:24:58 24° WNW 14:27:51 10° NNW
SPOT 3 Rocket 4.3 14:21:50 10° N 14:26:48 38° W 14:29:00 27° SW
ASTEX 1 3.4 14:21:46 10° ESE 14:26:49 66° S 14:30:51 16° W
IRIDIUM 106 4.4 14:24:31 29° SSW 14:27:20 72° WNW 14:32:39 10° N
ARIANE 5 R/B 3.4 14:22:59 10° N 14:27:26 44° WNW 14:29:28 28° WSW
CZ-2C R/B 3.1 14:22:56 10° ENE 14:28:36 66° NNW 14:33:52 11° W
Cosmos 2322 Rocket 4.5 14:24:56 10° NW 14:29:09 21° N 14:33:23 10° NE
Cosmos 2181 Rocket 4.1 14:23:24 12° W 14:29:11 77° N 14:35:30 10° ENE
Okean 1 Rocket 3.4 14:25:20 10° W 14:29:52 69° N 14:34:25 10° E
Terra 2.6 14:25:39 10° NNW 14:30:06 35° W 14:31:44 28° WSW
Cosmos 1470 3.4 14:31:42 30° WSW 14:33:04 43° WNW 14:36:47 10° NNE
CZ-2C R/B 4.5 14:32:47 18° S 14:33:40 19° SSE 14:37:07 10° ESE
Ariane Rocket 3.8 14:29:23 10° NNW 14:34:09 36° W 14:36:08 27° SW
MOS 1 Rocket 3.9 14:33:45 10° NNW 14:37:48 36° W 14:39:10 29° WSW
Okean-O 3.7 14:34:54 10° NW 14:38:49 28° W 14:39:35 27° WSW
Cosmos 1980 Rocket 4.3 14:35:00 10° WNW 14:38:49 19° NW 14:42:39 10° N
Cosmos 1812 3.5 14:36:29 10° NW 14:40:05 51° NE 14:43:42 10° ESE
CZ-2C R/B 4.0 14:40:58 18° SSE 14:40:58 18° SSE 14:44:03 10° SE
Cosmos 1500 Rocket 4.5 14:40:00 29° WSW 14:41:22 35° W 14:45:30 10° NNW
Cosmos 1782 Rocket 3.9 14:40:16 21° W 14:43:12 64° NNW 14:47:40 10° NE
Cosmos 1908 Rocket 3.9 14:40:45 23° WSW 14:43:23 61° NNW 14:47:47 10° NE
ARIANE 5 R/B 4.4 14:46:25 13° SSE 14:46:25 13° SSE 14:47:25 10° SSE
Cosmos 1933 4.4 14:41:16 10° NNW 14:45:12 48° NE 14:49:07 10° SE
H-2A R/B 3.9 14:44:55 14° SSE 14:47:10 20° ESE 14:50:15 10° ENE
Cosmos 2123 Rocket 4.3 14:42:29 10° NW 14:48:50 74° NNE 14:55:15 10° ESE
Cosmos 1606 3.1 14:45:19 10° WNW 14:49:00 62° NNE 14:52:42 10° E
SKYMED 2 4.3 14:44:37 10° ESE 14:49:02 59° NNE 14:53:27 10° NW
H-2A R/B 3.6 14:51:15 17° SSE 14:51:15 17° SSE 14:53:34 10° SE
Cosmos 1733 Rocket 3.6 14:48:03 25° WSW 14:50:31 55° NW 14:54:57 10° NNE
Cosmos 1346 Rocket 3.6 14:49:32 23° W 14:51:36 43° NW 14:55:20 10° NNE
Cosmos 1470 Rocket 4.3 14:50:18 28° WSW 14:52:07 42° WNW 14:56:18 10° N
Cosmos 1805 Rocket 4.5 14:50:51 28° WSW 14:52:15 34° W 14:56:19 10° NNW
Cosmos-2242 3.8 14:48:05 10° NNW 14:52:20 53° NE 14:56:35 10° ESE
S3M 4.3 14:48:56 24° SW 14:52:48 61° WNW 14:58:54 10° NNE
USA 32 4.5 14:48:00 10° NNW 14:53:19 66° ENE 14:58:36 10° SSE
Cosmos 1869 Rocket 4.2 14:51:39 26° WSW 14:53:55 49° WNW 14:58:18 10° NNE
Cosmos 1782 3.7 14:52:13 10° NNW 14:56:03 50° NE 14:59:52 10° ESE
Helios 1A Rocket 3.5 14:52:36 10° NE 14:56:32 51° NNW 14:59:01 21° WSW
ERS-1 Rocket 3.9 14:51:59 10° NNW 14:56:37 33° W 14:58:28 26° SW
USA 59 Rocket 3.8 14:51:08 10° W 14:57:05 17° WNW 15:02:39 10° NNW
Cosmos 1544 Rocket 3.9 14:53:37 10° WNW 14:58:04 67° NNE 15:02:29 10° E
Cosmos 1633 Rocket 3.8 14:56:46 27° WSW 14:58:30 39° WNW 15:02:37 10° N
CZ-4B R/B 4.2 14:54:07 10° NW 14:59:05 29° WSW 15:00:37 25° SW
Cosmos 1727 Rocket 4.2 14:53:24 10° WNW 14:59:51 77° NNE 15:06:16 10° E
Cosmos 1553 Rocket 4.4 14:56:38 24° SW 15:00:33 57° WNW 15:06:54 10° N
Cosmos 1666 Rocket 4.4 14:59:21 27° WSW 15:01:08 39° WNW 15:05:23 10° N
H-2A R/B 3.3 14:57:37 10° N 15:01:13 35° WNW 15:02:42 26° WSW
Cosmos 1238 Rocket 3.1 14:58:35 10° NW 15:01:37 53° NE 15:04:56 10° ESE
Iridium 4 Rocket 3.6 14:57:19 10° WNW 15:02:48 74° SSW 15:08:41 10° ESE
CZ-2D R/B 3.6 15:01:11 18° SSE 15:02:51 21° SE 15:06:51 10° E
SPOT 5 4.0 14:58:02 10° NW 15:02:56 34° W 15:04:56 26° SW
SL-16 R/B 3.1 14:58:09 10° ENE 15:04:22 61° N 15:10:36 10° W
Cosmos 1455 2.6 15:02:36 25° WSW 15:04:27 53° NW 15:08:02 10° NE
Sich 1 4.0 15:03:20 27° WSW 15:04:34 32° W 15:08:25 10° NNW
Resurs 1-4 Rocket 3.6 15:04:12 19° S 15:06:03 22° SE 15:10:13 10° E
Cosmos 2315 Rocket 4.3 15:02:01 22° SW 15:06:14 63° NW 15:12:32 10° NNE
Cosmos 405 Rocket 3.5 15:03:43 10° W 15:07:30 51° NNW 15:11:14 10° ENE
Cosmos 1674 4.4 15:06:47 10° NE 15:09:37 23° E 15:11:43 14° SE
GP-B 3.3 15:08:05 30° SSW 15:10:17 65° ESE 15:14:48 10° NE
CZ-4 R/B 3.1 15:08:12 10° WNW 15:10:07 18° W 15:10:07 18° W
Cosmos 1743 4.1 15:12:39 22° WSW 15:12:39 22° WSW 15:15:22 10° WNW
Cosmos 1908 4.1 15:11:59 27° WSW 15:13:28 39° WNW 15:16:59 10° N
Cosmos 2098 Rocket 3.5 15:09:09 13° WSW 15:13:50 70° NNW 15:18:12 10° ENE
SL-16 R/B 4.5 15:10:54 10° WNW 15:14:58 20° NNW 15:19:01 10° NNE
Cosmos 2369 Rocket 4.3 15:16:06 10° WSW 15:16:42 10° W 15:17:37 10° W
Cosmos 1933 Rocket 4.3 15:15:13 25° WSW 15:17:24 43° WNW 15:21:41 10° N
ALOS 3.9 15:17:10 18° SSE 15:17:41 19° SSE 15:21:01 10° ESE
Cosmos 1953 2.8 15:15:48 23° WSW 15:18:01 52° NW 15:21:51 10° NE
Nadezhda 1 Rocket 4.2 15:15:39 17° WSW 15:20:27 69° NW 15:26:35 10° NE
USA 81 4.1 15:15:50 10° WNW 15:21:15 88° SSW 15:26:40 10° ESE
YAOGAN 1 4.5 15:18:18 10° W 15:19:37 15° WSW 15:19:37 15° WSW
Cosmos 1626 3.7 15:18:56 10° NNE 15:21:45 26° E 15:24:03 13° SE
Resurs 01 Rocket 2.9 15:18:15 10° WNW 15:21:55 24° WSW 15:22:08 23° WSW
Cosmos 2221 3.4 15:20:59 10° NNW 15:25:11 50° NE 15:29:24 10° SE
Envisat 4.4 15:24:47 20° SSE 15:25:18 20° SSE 15:29:04 10° ESE
Cosmos 1726 3.6 15:25:47 18° W 15:25:47 18° W 15:27:36 10° WNW
Cosmos 1455 Rocket 3.4 15:23:15 10° W 15:27:46 68° N 15:32:16 10° ENE
SL-08 R/B 4.0 15:24:19 10° ESE 15:28:58 56° NNE 15:33:36 10° NW
Cosmos 1340 Rocket 4.4 15:26:48 10° N 15:30:18 31° ENE 15:33:50 10° SE
Okean O Rocket 2.9 15:27:06 10° WNW 15:30:37 22° WSW 15:30:47 22° WSW
ADEOS Rocket 3.8 15:29:05 10° W 15:33:53 24° SW 15:34:16 24° SSW
Cosmos 1300 Rocket 4.1 15:31:38 17° WSW 15:34:56 59° NW 15:39:23 10° NE
Cosmos 1606 Rocket 4.0 15:30:43 10° WNW 15:35:10 66° NNE 15:39:34 10° E
Cosmos 1441 Rocket 4.5 15:34:03 21° WSW 15:35:51 32° WNW 15:39:19 10° N
COSMO-SKYMED 1 3.1 15:32:58 10° E 15:37:24 63° NNE 15:41:51 10° WNW
Cosmos 1758 4.2 15:36:32 23° WSW 15:38:40 44° WNW 15:42:32 10° NNE
Cosmos 2151 Rocket 4.0 15:34:32 11° WSW 15:38:50 65° NNW 15:43:19 10° ENE
ALOS 2 3.5 15:35:34 10° N 15:39:50 40° WNW 15:42:13 23° SW
Sich 1 Rocket 4.0 15:37:01 11° WSW 15:41:24 65° NNW 15:45:54 10° ENE
Cosmos 2058 Rocket 3.6 15:38:02 10° NW 15:42:28 64° NNE 15:46:53 10° ESE
IDEFIX/ARIANE 42P 4.0 15:41:16 19° SSE 15:43:20 24° SE 15:47:34 10° ENE
ADEOS II 3.5 15:42:24 19° SSE 15:44:02 22° SE 15:48:12 10° E
MOZ.5/SAFIR/RUBIN 5/SL-8 4.4 15:39:33 10° NE 15:44:15 55° NW 15:48:13 15° WSW
Cosmos 1869 3.6 15:40:40 10° W 15:44:31 65° N 15:48:25 10° E
Cosmos 1825 4.3 15:43:02 10° ESE 15:44:02 12° SE 15:44:02 12° SE
Cosmos 1975 4.0 15:45:24 24° WSW 15:46:32 28° W 15:49:56 10° NNW
Cosmos 2228 3.4 15:42:57 10° WNW 15:47:17 68° N 15:51:35 10° E
Cosmos 1300 3.6 15:46:43 24° WSW 15:48:29 39° WNW 15:51:57 10° N
Cosmos 1378 3.9 15:45:41 10° NW 15:49:00 48° NE 15:52:19 10° ESE
Cosmos 1707 4.3 15:45:51 10° NNE 15:49:03 27° E 15:51:19 16° SE
Nadezhda 3 Rocket 4.2 15:43:12 10° WSW 15:49:27 75° NNW 15:55:43 10° ENE
Okean 2 Rocket 3.6 15:46:18 10° WSW 15:50:54 65° NNW 15:55:28 10° NE
Meteor 1-28 Rocket 3.7 15:50:38 10° NE 15:54:20 58° NNW 15:57:36 13° WSW
UNK 4.3 15:50:15 10° ENE 15:54:53 60° NNW 15:59:33 10° W
Cosmos 1536 4.2 15:55:21 23° WSW 15:55:58 24° WSW 15:59:13 10° NW
Cosmos 1766 4.4 15:55:35 24° WSW 15:56:54 29° W 16:00:14 10° NNW
Helios 1A 3.7 15:54:03 10° E 15:58:12 57° NNE 16:02:20 10° WNW
Cosmos 1340 4.3 15:58:05 18° WSW 15:58:21 18° W 16:00:46 10° NW
Cosmos 1726 Rocket 4.0 15:54:45 10° WNW 15:59:13 67° NNE 16:03:38 10° E
Okean 1 4.4 15:56:38 10° NNW 16:00:22 43° ENE 16:04:05 10° SE
ARIANE 5 R/B 3.8 16:00:31 10° NNW 16:04:44 33° W 16:06:55 22° SW
Meteor 2-10 Rocket 4.3 16:01:34 18° SW 16:04:59 41° WNW 16:09:45 10° N
ASTEX 1 3.4 16:00:33 10° E 16:05:36 69° SSE 16:10:15 12° WSW
Okean 1 Rocket 3.5 16:03:03 10° WSW 16:07:35 64° NNW 16:12:07 10° NE
Cosmos 1470 3.9 16:06:21 23° WSW 16:07:56 31° W 16:11:25 10° NNW
Cosmos 1812 Rocket 4.2 16:03:31 10° NW 16:08:00 62° NNE 16:12:30 10° ESE
Terra 3.0 16:04:46 10° NW 16:08:53 27° WSW 16:10:26 23° SW
CZ-2C R/B 3.3 16:03:50 10° NE 16:09:27 60° NW 16:14:59 10° WSW
Ariane Rocket 4.2 16:09:55 10° NW 16:14:21 28° WSW 16:16:16 22° SW
Cosmos 2181 Rocket 4.3 16:08:26 10° WSW 16:14:40 70° NW 16:20:56 10° NE
Cosmos 1812 3.1 16:11:03 10° WNW 16:14:42 61° NNE 16:18:22 10° E
CZ-2C R/B 4.3 16:13:48 20° SSE 16:15:13 22° SE 16:19:01 10° ENE
Okean-O 4.0 16:12:59 10° WNW 16:16:30 22° WSW 16:17:02 21° SW
MOS 1 Rocket 4.3 16:13:18 10° NW 16:17:03 26° WSW 16:18:20 23° SW
Cosmos 1408 4.4 16:17:47 10° E 16:19:35 14° ESE 16:19:39 14° ESE
CZ-2C R/B 3.8 16:20:17 20° SSE 16:20:35 20° SSE 16:24:13 10° ESE
Cosmos 1782 Rocket 4.3 16:17:22 16° WSW 16:20:47 53° NW 16:25:11 10° NNE
Cosmos 1908 Rocket 4.3 16:17:50 18° SW 16:20:54 48° NW 16:25:13 10° NNE
Cosmos 1980 Rocket 4.5 16:17:49 10° W 16:21:01 16° WNW 16:24:12 10° NNW
Cosmos 1933 3.9 16:17:05 10° NW 16:21:06 60° NNE 16:25:06 10° ESE
Cosmos 1151 Rocket 4.0 16:18:04 10° NNW 16:22:17 46° ENE 16:26:20 11° SE
Cosmos 1606 3.1 16:19:54 10° W 16:23:36 63° N 16:27:17 10° ENE
H-2A R/B 3.5 16:21:44 16° SE 16:24:06 26° E 16:27:40 10° NNE
ARIANE 5 R/B 4.3 16:26:44 15° SE 16:26:44 15° SE 16:28:22 10° SE
SKYMED 2 4.1 16:21:13 10° E 16:25:40 65° N 16:30:07 10° WNW
Cosmos 1346 Rocket 4.1 16:24:32 17° WSW 16:26:58 33° WNW 16:30:29 10° N
Cosmos 1733 Rocket 4.0 16:25:04 20° SW 16:27:51 42° WNW 16:32:07 10° N
Cosmos-2242 3.5 16:25:07 10° WNW 16:29:26 64° NNE 16:33:45 10° ESE
H-2A R/B 3.4 16:31:49 19° SSE 16:31:49 19° SSE 16:34:54 10° ESE
Helios 1A Rocket 3.9 16:27:40 10° NNE 16:31:29 40° WNW 16:34:23 16° WSW
Cosmos 1782 3.3 16:27:37 10° WNW 16:31:32 61° NNE 16:35:26 10° ESE
USA 32 4.2 16:28:49 10° NW 16:34:11 81° NE 16:39:33 10° SE
Cosmos 2123 Rocket 4.2 16:27:50 10° W 16:34:13 78° N 16:40:38 10° E
Cosmos 1633 Rocket 4.3 16:33:46 22° SW 16:35:31 29° W 16:39:21 10° NW
Cosmos 1544 Rocket 3.9 16:31:17 10° W 16:35:44 67° NNW 16:40:09 10° ENE
Cosmos 1515 4.2 16:33:04 10° NW 16:36:38 58° NNE 16:40:14 10° ESE
ERS-1 Rocket 4.2 16:32:27 10° WNW 16:36:43 26° WSW 16:38:24 22° SSW
H-2A R/B 3.8 16:33:47 10° NNW 16:37:05 26° W 16:38:42 20° SW
Cosmos 1455 3.1 16:36:22 19° WSW 16:38:37 40° WNW 16:42:03 10° N
Cosmos 1238 Rocket 2.7 16:36:16 10° WNW 16:39:22 64° N 16:42:46 10° E
ARGOS 4.5 16:41:12 21° SSE 16:41:12 21° SSE 16:44:40 10° ESE
Tsikada Rocket 4.3 16:34:13 10° NW 16:40:34 71° NE 16:46:52 10° ESE
Sich 1 4.4 16:40:03 22° SW 16:41:09 24° WSW 16:44:39 10° WNW
CZ-4B R/B 4.4 16:36:47 10° W 16:41:23 24° SW 16:42:30 22° SSW
SPOT 5 4.3 16:37:46 10° WNW 16:42:19 27° SW 16:44:05 23° SSW
Cosmos 405 Rocket 3.8 16:38:37 10° WSW 16:42:19 44° NW 16:45:59 10° NE
Cosmos 1400 Rocket 4.4 16:39:53 10° NNE 16:43:06 25° E 16:45:12 16° SE
Iridium 4 Rocket 3.7 16:37:37 10° W 16:43:08 72° S 16:49:01 10° E
Cosmos 1674 3.9 16:40:05 10° N 16:43:15 32° ENE 16:45:18 18° SE
USA 59 Rocket 3.9 16:39:26 10° WSW 16:43:50 14° W 16:48:02 10° WNW
CZ-2D R/B 3.4 16:42:28 20° SSE 16:44:35 26° ESE 16:49:00 10° ENE
Cosmos 1727 Rocket 4.2 16:38:51 10° W 16:45:19 78° N 16:51:43 10° ENE
Cosmos 2228 Rocket 4.3 16:41:26 10° NNE 16:45:30 34° E 16:48:03 19° SE
CZ-4 R/B 3.4 16:44:41 10° WSW 16:45:42 13° WSW 16:45:42 13° WSW
Resurs 1-4 Rocket 3.4 16:45:16 20° SSE 16:47:33 27° ESE 16:52:06 10° ENE
GP-B 3.1 16:45:24 28° S 16:47:46 87° E 16:52:19 10° N
SL-16 R/B 3.2 16:42:37 10° NE 16:48:47 55° NW 16:54:59 10° WSW
Cosmos 1842 Rocket 4.2 16:47:30 10° NW 16:51:56 58° NE 16:56:25 10° ESE
CZ-4C R/B 4.1 16:48:24 10° ESE 16:52:23 52° NE 16:56:11 10° NW
Cosmos 2098 Rocket 3.8 16:47:52 10° SW 16:53:02 58° NW 16:57:18 10° NNE
Cosmos 1953 3.3 16:50:55 18° SW 16:53:29 40° WNW 16:57:11 10° N
Cosmos 1626 3.1 16:51:40 10° N 16:54:45 36° ENE 16:56:52 17° ESE
ALOS 3.6 16:55:28 21° SE 16:56:29 22° SE 17:00:12 10° ENE
Cosmos 1726 4.1 16:58:15 13° WSW 16:58:15 13° WSW 16:59:10 10° W
Resurs 01 Rocket 3.2 16:56:34 10° W 16:59:36 19° SW 16:59:36 19° SW
Cosmos 1242 Rocket 4.4 17:00:03 10° E 17:01:16 12° ESE 17:01:16 12° ESE
Cosmos 2221 3.0 16:57:58 10° NW 17:02:15 62° NNE 17:06:34 10° ESE
USA 81 4.0 16:57:07 10° W 17:02:32 87° S 17:07:57 10° E
Cosmos 1455 Rocket 3.6 17:00:54 10° WSW 17:05:24 62° NNW 17:09:52 10° NE
Nadezhda 1 Rocket 4.5 17:00:16 14° SW 17:05:28 57° WNW 17:11:30 10° N
Cosmos 1340 Rocket 3.9 17:02:06 10° NNW 17:05:49 41° NE 17:09:35 10° ESE
Envisat 4.2 17:04:57 22° SSE 17:06:00 23° SE 17:10:07 10° E
SL-08 R/B 3.9 17:02:33 10° E 17:07:15 61° N 17:11:54 10° WNW
Okean O Rocket 3.2 17:05:18 10° W 17:08:08 18° SW 17:08:08 18° SW
Cosmos 1300 Rocket 4.5 17:08:37 14° SW 17:12:19 47° WNW 17:16:39 10° NNE
Cosmos 1606 Rocket 3.9 17:08:22 10° W 17:12:49 68° N 17:17:14 10° ENE
COSMO-SKYMED 1 3.1 17:09:33 10° ENE 17:14:00 65° N 17:18:28 10° W
Cosmos 1025 Rocket 4.5 17:11:02 10° E 17:14:17 21° SE 17:14:37 20° SE
Cosmos 2151 Rocket 4.3 17:12:14 10° WSW 17:16:38 54° NW 17:21:04 10° NNE
ALOS 2 4.0 17:13:07 10° NNW 17:17:07 30° W 17:19:36 18° SW
Cosmos 1825 3.9 17:15:32 10° E 17:17:34 16° ESE 17:17:34 16° ESE
Sich 1 Rocket 4.3 17:14:54 10° WSW 17:19:19 54° NW 17:23:45 10° NNE
Cosmos 1869 3.8 17:16:11 10° WSW 17:20:01 60° NNW 17:23:54 10° NE
Meteor 1-4 Rocket 4.2 17:17:56 10° NE 17:20:07 17° E 17:20:51 16° ESE
Cosmos 2058 Rocket 3.4 17:15:49 10° W 17:20:16 68° N 17:24:43 10° E
ADEOS Rocket 4.0 17:16:59 10° WSW 17:21:10 22° SSW 17:21:10 22° SSW
Cosmos 1975 4.4 17:20:34 19° SW 17:21:34 21° WSW 17:24:34 10° WNW
Cosmos 1378 3.5 17:19:11 10° WNW 17:22:33 58° NNE 17:25:56 10° E
Cosmos 1300 4.1 17:20:45 18° SW 17:22:41 28° W 17:25:54 10° NNW
Cosmos 1707 3.7 17:19:58 10° N 17:23:29 37° ENE 17:25:37 20° ESE
Cosmos 2082 Rocket 4.5 17:20:40 10° NNE 17:23:43 15° ENE 17:26:47 10° E
IDEFIX/ARIANE 42P 3.7 17:22:01 21° SE 17:24:24 30° ESE 17:29:02 10° NE
Cosmos 2228 3.5 17:20:08 10° WSW 17:24:27 64° NNW 17:28:44 10° ENE
Okean 1-7 4.2 17:21:02 10° NNE 17:24:50 31° E 17:26:46 22° SE
ADEOS II 3.3 17:23:17 22° SSE 17:25:19 27° ESE 17:29:52 10° NE
Cosmos 1092 Rocket 4.3 17:20:36 10° NNW 17:26:46 64° NE 17:32:16 13° SE
Meteor 1-28 Rocket 4.1 17:24:33 10° NNE 17:28:12 47° NW 17:31:51 10° SW
Okean 2 Rocket 3.9 17:24:10 10° SW 17:28:41 53° NW 17:33:11 10° NNE
Cosmos 1842 4.2 17:28:48 10° N 17:32:25 41° ENE 17:34:41 20° ESE
Helios 1A 3.6 17:29:37 10° ENE 17:33:48 59° N 17:37:58 10° W
Nadezhda 3 Rocket 4.4 17:28:33 10° SW 17:34:46 66° NW 17:40:57 10° NNE
Okean 1 3.9 17:31:59 10° NW 17:35:49 56° NNE 17:39:18 12° ESE
Cosmos 1726 Rocket 4.0 17:32:23 10° W 17:36:51 68° N 17:41:16 10° ENE
Nadezhda 4 Rocket 4.3 17:34:01 10° NW 17:40:16 69° NE 17:46:28 10° ESE
ARIANE 5 R/B 4.2 17:38:26 10° NW 17:42:17 25° WSW 17:44:23 19° SSW
Cosmos 1470 4.4 17:41:01 18° SW 17:42:34 23° WSW 17:45:40 10° NW
Cosmos 2266 Rocket 4.4 17:37:40 10° N 17:43:48 57° ENE 17:48:14 19° SE
ASTEX 1 3.4 17:39:23 10° NE 17:44:28 79° SE 17:49:35 10° SW
SJ 16-02 3.6 17:42:50 10° ENE 17:44:36 12° E 17:46:08 10° ESE
Okean 1 Rocket 3.9 17:40:44 10° SW 17:45:11 53° NW 17:49:39 10° NNE
Cosmos 1812 Rocket 4.0 17:41:09 10° WNW 17:45:40 69° N 17:50:13 10° E
Cosmos 1892 4.2 17:44:13 10° ENE 17:46:54 19° ESE 17:46:59 19° ESE
Terra 3.3 17:44:12 10° W 17:47:56 22° SW 17:49:08 20° SSW
Cosmos 1707 Rocket 4.5 17:44:44 10° N 17:48:51 39° ENE 17:51:11 22° SE
Cosmos 1812 3.1 17:45:43 10° W 17:49:23 63° N 17:53:03 10° ENE
CZ-2C R/B 3.6 17:44:58 10° NNE 17:50:30 49° WNW 17:55:55 10° SW
Cosmos 1655 Rocket 4.4 17:44:52 10° N 17:51:02 56° ENE 17:55:23 20° SE
Cosmos 1408 3.9 17:49:09 10° NE 17:51:33 20° E 17:51:48 20° ESE
Okean-O 4.3 17:51:19 10° WSW 17:54:25 18° SSW 17:54:29 18° SSW
Ariane Rocket 4.4 17:50:48 10° W 17:54:49 22° SW 17:56:24 20° SSW
CZ-2C R/B 4.0 17:54:50 23° SE 17:56:32 28° ESE 18:00:44 10° NE
Cosmos 1933 3.7 17:53:04 10° WNW 17:57:07 66° N 18:01:09 10° E
Cosmos 1606 3.3 17:54:30 10° WSW 17:58:09 55° NNW 18:01:48 10° NE
Cosmos 1315 Rocket 4.2 17:55:19 10° NNE 17:58:40 26° E 18:00:08 21° ESE
Cosmos 1151 Rocket 3.6 17:55:06 10° NW 17:59:26 59° NE 18:03:05 14° ESE
CZ-2C R/B 3.6 17:59:35 23° SE 18:00:21 24° ESE 18:04:25 10° ENE
H-2A R/B 3.1 17:58:32 20° ESE 18:00:48 36° ENE 18:04:39 10° N
SKYMED 2 4.2 17:57:50 10° ENE 18:02:16 62° NNW 18:06:42 10° W
Landsat 5 4.3 18:00:30 13° ESE 18:04:29 55° NE 18:08:57 10° NW
Cosmos 1733 Rocket 4.5 18:02:04 16° SSW 18:04:57 32° W 18:08:57 10° NNW
ARIANE 5 R/B 4.0 18:07:03 18° SE 18:07:03 18° SE 18:09:34 10° E
Cosmos-2242 3.4 18:02:17 10° W 18:06:38 68° N 18:10:57 10° E
Helios 1A Rocket 4.4 18:03:04 10° NNW 18:06:38 30° W 18:09:45 13° SW
Cosmos 1782 3.2 18:03:11 10° W 18:07:06 65° N 18:11:01 10° E
Cosmos 1328 Rocket 4.1 18:04:38 10° NW 18:09:05 57° NE 18:12:22 18° ESE
Cosmos 1515 4.0 18:07:23 10° W 18:10:58 63° N 18:14:34 10° E
H-2A R/B 3.1 18:12:23 23° SE 18:12:24 23° SE 18:16:21 10° E
Cosmos 1455 3.7 18:10:08 15° SW 18:12:34 29° W 18:15:45 10° NNW
H-2A R/B 4.2 18:10:22 10° WNW 18:13:12 19° WSW 18:14:41 16° SW
Cosmos 1544 Rocket 4.2 18:08:56 10° WSW 18:13:21 59° NW 18:17:43 10° NE
USA 32 4.0 18:09:52 10° WNW 18:15:15 88° SSW 18:20:38 10° ESE
Cosmos 1515 Rocket 4.2 18:11:35 10° NNW 18:16:01 54° NE 18:18:59 20° ESE
Cosmos 405 Rocket 4.3 18:13:28 10° SW 18:17:01 34° WNW 18:20:31 10° N
ERS-1 Rocket 4.4 18:13:12 10° W 18:17:05 21° SW 18:18:19 20° SSW
Cosmos 1674 3.3 18:13:45 10° NNW 18:17:07 44° NE 18:18:53 24° ESE
Cosmos 1238 Rocket 2.7 18:14:03 10° W 18:17:10 64° NNW 18:20:36 10° ENE
Meteor 1-27 Rocket 4.3 18:11:32 10° NW 18:17:27 62° NNE 18:23:14 10° ESE
Cosmos 1400 Rocket 4.0 18:14:51 10° N 18:18:24 33° ENE 18:20:21 21° ESE
Cosmos 2026 Rocket 4.3 18:12:49 10° NW 18:19:05 70° NE 18:24:34 15° ESE
Cosmos 2123 Rocket 4.3 18:13:12 10° WSW 18:19:35 75° NNW 18:26:00 10° ENE
Meteor 2-4 Rocket 4.2 18:16:10 10° NW 18:21:29 56° NE 18:26:26 12° ESE
SPOT 5 4.4 18:17:44 10° W 18:21:58 23° SSW 18:23:13 21° S
ARGOS 4.3 18:22:42 24° SE 18:22:42 24° SE 18:27:03 10° E
Cosmos 2228 Rocket 3.8 18:18:45 10° N 18:23:05 45° ENE 18:25:28 24° ESE
CZ-4 R/B 3.7 18:21:10 10° SW 18:21:17 10° SW 18:21:17 10° SW
Iridium 4 Rocket 3.7 18:17:52 10° SW 18:23:25 77° SSE 18:29:21 10° ENE
GP-B 3.3 18:22:43 29° S 18:24:59 69° WSW 18:29:30 10° NNW
CZ-2D R/B 3.1 18:23:46 23° SE 18:26:03 33° E 18:30:50 10° NNE
Tsikada Rocket 4.2 18:19:40 10° WNW 18:26:04 78° N 18:32:22 10° E
CRYOSAT 2 4.5 18:23:40 27° S 18:26:23 64° E 18:31:22 10° NNE
CZ-4C R/B 3.9 18:22:46 10° E 18:26:49 59° N 18:30:40 10° WNW
Cosmos 1626 2.6 18:24:42 10° NW 18:27:57 49° NE 18:29:42 23° E
Cosmos 1953 3.9 18:26:03 14° SW 18:28:44 29° W 18:32:09 10° NNW
Resurs 1-4 Rocket 3.1 18:26:19 24° SE 18:28:46 34° E 18:33:42 10° NNE
Iridium 51 4.0 18:25:25 10° NNW 18:28:51 71° ENE 18:30:02 38° SE
Cosmos 1842 Rocket 4.0 18:25:05 10° WNW 18:29:35 67° NNE 18:34:06 10° E
USA 59 Rocket 4.1 18:28:48 10° WSW 18:30:11 10° WSW 18:31:32 10° WSW
Cosmos 1727 Rocket 4.4 18:24:15 10° WSW 18:30:41 71° NW 18:37:03 10° NE
Cosmos 2098 Rocket 4.2 18:27:02 10° SW 18:32:01 45° WNW 18:36:06 10° N
Cosmos 1242 Rocket 4.0 18:30:38 10° NE 18:32:39 17° E 18:32:41 17° E
PSLV R/B 4.3 18:30:33 23° ESE 18:33:00 45° ENE 18:37:19 10° NNW
SL-16 R/B 3.6 18:27:22 10° N 18:33:23 46° WNW 18:39:27 10° SW
ALOS 3.4 18:33:46 25° SE 18:35:04 28° ESE 18:39:10 10° NE
Resurs 01 Rocket 3.4 18:34:55 10° SW 18:37:05 16° SSW 18:37:05 16° SSW
CZ-2C R/B 4.3 18:34:31 18° ESE 18:37:57 55° NE 18:42:38 10° NW
Cosmos 2221 2.8 18:35:08 10° W 18:39:27 68° N 18:43:47 10° E
Cosmos 1340 Rocket 3.6 18:37:42 10° NW 18:41:31 50° NNE 18:44:56 13° E
Cosmos 1975 Rocket 4.2 18:37:51 10° ENE 18:41:35 25° ESE 18:42:01 25° ESE
Cosmos 1455 Rocket 4.0 18:38:30 10° SW 18:42:53 50° NW 18:47:14 10° NNE
Okean 3 4.2 18:39:22 10° N 18:43:27 43° ENE 18:45:24 26° ESE
USA 81 4.1 18:38:23 10° WSW 18:43:48 86° NNW 18:49:12 10° NE
SL-08 R/B 3.9 18:40:49 10° ENE 18:45:29 59° NNW 18:50:09 10° W
Okean O Rocket 3.5 18:43:34 10° SW 18:45:28 15° SSW 18:45:28 15° SSW
Envisat 4.0 18:45:07 25° SE 18:46:31 29° ESE 18:51:00 10° NE
SL-14 R/B 4.1 18:45:58 10° NNW 18:49:50 44° ENE 18:51:42 26° ESE
Cosmos 1606 Rocket 4.2 18:46:01 10° WSW 18:50:26 61° NNW 18:54:49 10° NE
COSMO-SKYMED 1 3.3 18:46:13 10° NE 18:50:38 58° NNW 18:55:04 10° WSW
Cosmos 1025 Rocket 4.1 18:47:08 10° NE 18:50:48 27° ESE 18:51:25 26° ESE
Cosmos 1825 3.5 18:48:21 10° NE 18:51:05 22° E 18:51:05 22° E
Cosmos 1745 Rocket 4.4 18:46:02 10° N 18:52:07 53° ENE 18:55:41 25° SE
Meteor 1-4 Rocket 3.7 18:49:41 10° NNE 18:52:20 24° ENE 18:52:59 23° E
ALOS 2 4.3 18:51:04 10° WNW 18:54:41 23° WSW 18:57:00 16° SSW
Meteor 2-5 Rocket 4.5 18:49:57 10° NNE 18:55:03 37° E 18:57:32 25° SE
Cosmos 1869 4.2 18:51:39 10° WSW 18:55:25 49° NW 18:59:13 10° NNE
Cosmos 1378 3.4 18:52:47 10° W 18:56:11 60° N 18:59:33 10° ENE
Cosmos 2058 Rocket 3.6 18:53:39 10° WSW 18:58:05 64° NNW 19:02:29 10° NE
Cosmos 1707 3.2 18:54:27 10° NNW 18:58:07 50° NE 18:59:54 26° ESE
Cosmos 1703 Rocket 4.3 18:54:19 10° N 18:58:28 41° ENE 19:00:18 27° ESE
Cosmos 2228 3.8 18:57:17 10° WSW 19:01:32 53° NW 19:05:44 10° NNE
Okean 1-7 3.7 18:57:29 10° N 19:01:33 43° ENE 19:03:21 27° ESE
Cosmos 1862 Rocket 4.2 18:58:07 10° NNW 19:02:29 48° ENE 19:04:40 26° ESE
FENGYUN 3A 4.5 19:00:29 25° SE 19:02:48 36° E 19:07:54 10° NNE
IDEFIX/ARIANE 42P 3.3 19:02:46 25° SE 19:05:10 38° E 19:10:06 10° N
Okean 2 4.1 19:01:33 10° N 19:05:29 41° ENE 19:07:07 28° ESE
Cosmos 2082 Rocket 4.3 19:02:10 10° N 19:05:57 19° NE 19:09:44 10° E
Okean 2 Rocket 4.4 19:01:56 10° SW 19:06:16 41° WNW 19:10:35 10° N
ADEOS II 2.9 19:04:09 26° SE 19:06:19 35° E 19:11:13 10° NNE
Cosmos 1842 3.7 19:03:32 10° NW 19:07:17 54° NE 19:09:11 26° ESE
ADEOS Rocket 4.1 19:04:41 10° SW 19:08:06 21° S 19:08:06 21° S
Helios 1A 3.8 19:05:15 10° NE 19:09:24 54° NNW 19:13:32 10° WSW
Okean 1 3.6 19:07:32 10° WNW 19:11:25 64° N 19:14:22 17° E
Cosmos 1092 Rocket 4.1 19:05:43 10° WNW 19:11:57 74° NNE 19:16:54 17° ESE
Cosmos 2074 Rocket 4.4 19:06:26 10° NNE 19:12:30 47° E 19:15:48 26° SSE
Cosmos 2242 Rocket 4.4 19:08:45 10° N 19:12:59 39° ENE 19:14:37 28° ESE
Cosmos 1726 Rocket 4.2 19:10:01 10° WSW 19:14:26 59° NW 19:18:48 10° NE
Cosmos 1703 4.2 19:11:11 10° NNE 19:14:35 31° E 19:15:21 28° ESE
Cosmos 1674 Rocket 4.5 19:10:45 10° NNE 19:14:44 33° E 19:15:53 28° ESE
SL-24 DEB 4.4 19:14:32 26° S 19:17:07 56° ESE 19:21:51 10° NNE
MINOTAUR 4 R/B 4.4 19:17:01 29° E 19:18:14 47° NNE 19:21:15 10° NW
ARIANE 5 R/B 4.5 19:16:40 10° W 19:20:06 20° SW 19:21:51 17° SSW
Cosmos 1892 3.8 19:17:36 10° NNE 19:20:43 26° E 19:20:56 26° E
KORONAS-FOTON 4.2 19:17:21 10° NW 19:21:02 54° NE 19:22:44 28° E
SJ 16-02 3.3 19:18:40 10° NNE 19:21:28 16° ENE 19:22:53 14° E
Okean 1 Rocket 4.4 19:18:18 10° SW 19:22:35 41° WNW 19:26:53 10° N
Cosmos 1812 Rocket 4.0 19:18:50 10° W 19:23:21 67° NNW 19:27:53 10° ENE
ASTEX 1 3.5 19:18:26 10° NNE 19:23:32 83° WNW 19:28:40 10° SSW
Cosmos 1408 3.4 19:20:57 10° NNE 19:23:45 28° ENE 19:23:58 28° E
Cosmos 1812 3.3 19:20:23 10° WSW 19:24:01 55° NNW 19:27:39 10° NE
Nadezhda 4 Rocket 4.1 19:19:11 10° WNW 19:25:27 77° NNE 19:31:04 13° E
Cosmos 1707 Rocket 4.0 19:21:54 10° NNW 19:26:12 52° NE 19:28:14 28° ESE
NPP 4.3 19:24:22 26° SE 19:26:55 41° ENE 19:32:07 10° N
Terra 3.4 19:23:48 10° WSW 19:27:12 19° SSW 19:27:50 18° S
Cosmos 2266 Rocket 4.2 19:22:33 10° NW 19:28:47 69° NE 19:32:47 23° ESE
Cosmos 1378 Rocket 4.4 19:25:17 10° NNE 19:29:24 35° E 19:30:39 30° ESE
CZ-2C R/B 4.0 19:26:28 10° NNW 19:31:46 39° W 19:36:59 10° SSW
Thor Agena Rocket 4.5 19:31:12 27° ESE 19:32:09 28° ESE 19:36:39 10° NE
Okean-O 4.5 19:29:39 10° SW 19:31:57 16° SSW 19:31:57 16° SSW
Cosmos 1606 3.9 19:29:02 10° SW 19:32:35 42° WNW 19:36:07 10° NNE
Cosmos 1933 3.8 19:29:07 10° W 19:33:09 62° NNW 19:37:10 10° ENE
Cosmos 1315 Rocket 3.8 19:30:28 10° N 19:34:08 35° ENE 19:35:25 27° E
Cosmos 2184 Rocket 4.4 19:28:55 10° NNE 19:34:57 49° E 19:38:07 27° SE
Cosmos 1655 Rocket 4.2 19:30:04 10° NW 19:36:21 69° NE 19:40:18 24° ESE
Cosmos 1151 Rocket 3.3 19:32:22 10° WNW 19:36:45 67° NNE 19:39:50 19° E
H-2A R/B 2.6 19:35:20 27° ESE 19:37:15 46° NE 19:41:16 10° NNW
CZ-2C R/B 3.6 19:35:50 28° ESE 19:37:34 38° E 19:42:05 10° N
SKYMED 2 4.5 19:34:34 10° NE 19:38:56 53° NW 19:43:20 10° WSW
CZ-2C R/B 3.3 19:38:53 28° ESE 19:39:53 30° E 19:44:21 10° NE
Landsat 5 4.0 19:36:44 17° E 19:40:08 62° N 19:44:38 10° WNW
Meteor 1-24 Rocket 4.3 19:36:41 10° N 19:41:48 41° ENE 19:44:11 27° ESE
Cosmos 1782 3.3 19:38:46 10° WSW 19:42:40 60° NNW 19:46:34 10° NE
Cosmos-2242 3.5 19:39:29 10° WSW 19:43:49 62° NNW 19:48:06 10° NE
Cosmos 2227 Rocket 4.3 19:43:32 10° E 19:43:42 10° E 19:43:42 10° E
Cosmos 1515 4.2 19:41:43 10° WSW 19:45:18 58° NNW 19:48:53 10° NE
Cosmos 1455 4.2 19:43:55 12° SSW 19:46:16 21° WSW 19:49:03 10° WNW
ARIANE 5 R/B 3.7 19:47:22 23° ESE 19:47:22 23° ESE 19:50:45 10° ENE
Cosmos 1328 Rocket 3.9 19:42:06 10° WNW 19:46:35 66° NNE 19:49:21 23° E
Cosmos 1356 Rocket 4.1 19:42:59 10° NNW 19:46:50 41° NE 19:48:24 28° E
Cosmos 2154 Rocket 4.4 19:40:51 10° NNE 19:46:59 49° E 19:50:14 27° SE
YAOGAN 6 4.2 19:49:29 19° ENE 19:49:29 19° ENE 19:51:03 10° NE
H-2A R/B 4.4 19:47:17 10° WSW 19:49:33 15° SW 19:50:41 13° SSW
Cosmos 1674 2.9 19:47:41 10° NW 19:51:09 56° NNE 19:52:28 33° E
H-2A R/B 2.8 19:52:57 28° ESE 19:53:18 28° ESE 19:57:39 10° NE
Cosmos 1709 Rocket 4.2 19:47:29 10° NNW 19:53:33 58° ENE 19:56:50 27° SE
Cosmos 1515 Rocket 3.9 19:49:03 10° WNW 19:53:35 65° NNE 19:56:03 26° E
Cosmos 1400 Rocket 3.5 19:50:11 10° NNW 19:53:56 43° NE 19:55:30 28° E
Cosmos 1238 Rocket 3.1 19:51:49 10° WSW 19:54:54 53° NW 19:58:20 10° NE
USA 32 4.0 19:51:01 10° W 19:56:23 87° S 20:01:26 12° E
Meteor 1-27 Rocket 4.2 19:54:36 10° W 20:00:31 65° N 20:06:20 10° E
Cosmos 2228 Rocket 3.5 19:56:25 10° NW 20:00:53 58° NE 20:02:53 30° ESE
CZ-4C R/B 3.9 19:57:09 10° ENE 20:01:12 59° NNW 20:05:04 10° W
Cosmos 1626 2.2 19:57:59 10° WNW 20:01:17 59° NNE 20:02:31 34° ENE
GP-B 3.6 20:00:02 30° SSE 20:01:58 53° SW 20:06:23 10° WNW
Cosmos 1821 Rocket 4.5 19:57:11 10° NE 20:03:10 41° ESE 20:06:25 25° SSE
Iridium 4 Rocket 3.7 19:57:58 10° SW 20:03:34 89° NW 20:09:30 10° NNE
Cosmos 1953 4.3 20:01:11 12° SSW 20:03:45 21° WSW 20:06:45 10° WNW
Meteor 2-4 Rocket 4.0 19:58:47 10° WNW 20:04:10 63° N 20:08:30 17° E
Cosmos 1242 Rocket 3.5 20:01:49 10° N 20:04:07 25° NE 20:04:07 25° NE
Cosmos 2026 Rocket 4.1 19:57:56 10° WNW 20:04:17 77° NNE 20:09:06 19° E
Cosmos 2366 rocket 4.4 19:58:37 10° NNE 20:04:29 44° E 20:07:27 27° SSE
ARGOS 4.0 20:04:12 29° ESE 20:04:33 29° ESE 20:09:20 10° NE
Iridium 51 3.8 20:01:08 10° NW 20:04:35 83° SW 20:05:25 50° SE
CRYOSAT 2 4.4 20:02:55 28° SSE 20:05:36 84° ENE 20:10:38 10° NNW
Cosmos 2297 Rocket 4.1 20:04:01 10° ENE 20:06:20 13° E 20:06:27 13° E
CZ-2D R/B 2.7 20:05:03 29° ESE 20:07:13 42° ENE 20:12:17 10° N
Cosmos 1842 Rocket 3.9 20:02:47 10° W 20:07:17 68° N 20:11:45 10° ENE
Cosmos 2341 Rocket 4.4 20:02:09 10° NNE 20:08:16 46° E 20:11:30 27° SSE
Resurs 1-4 Rocket 2.7 20:07:23 29° ESE 20:09:41 44° ENE 20:14:52 10° N
PSLV R/B 4.0 20:08:10 30° E 20:10:11 57° NNE 20:14:36 10° NW
MSX 4.4 20:08:28 28° ESE 20:11:14 46° ENE 20:16:53 10° N
Tsikada Rocket 4.2 20:05:13 10° WSW 20:11:36 76° NNW 20:17:53 10° ENE
ALOS 3.0 20:12:05 32° ESE 20:13:22 37° ENE 20:17:47 10° N
CZ-2C R/B 4.1 20:12:39 23° E 20:15:31 63° NNE 20:20:15 10° WNW
Resurs 01 Rocket 3.6 20:13:04 10° SSW 20:14:34 15° S 20:14:34 15° S
Cosmos 2221 2.9 20:12:21 10° WSW 20:16:39 64° NNW 20:20:58 10° ENE
Cosmos 1340 Rocket 3.5 20:13:27 10° W 20:17:18 52° N 20:20:07 17° ENE
SL-16 R/B 4.0 20:12:32 10° NNW 20:18:17 37° W 20:24:05 10° SSW
Cosmos 1975 Rocket 3.8 20:14:26 10° NNE 20:18:32 34° E 20:19:05 32° ESE
Okean 3 3.8 20:15:46 10° NW 20:19:59 55° NE 20:21:34 34° E
SL-08 R/B 4.2 20:19:13 10° NNE 20:23:49 50° NW 20:28:25 10° WSW
Okean O Rocket 3.6 20:21:34 10° SSW 20:22:49 14° S 20:22:49 14° S
Cosmos 1825 3.0 20:21:32 10° NNE 20:24:36 31° ENE 20:24:36 31° ENE
Meteor 1-4 Rocket 3.2 20:21:51 10° NNW 20:24:46 33° NE 20:25:06 32° ENE
USA 81 4.4 20:19:31 10° SW 20:24:53 72° WNW 20:30:15 10° NNE
SL-14 R/B 3.7 20:21:26 10° NW 20:25:27 56° NE 20:26:54 35° E
Envisat 3.7 20:25:17 31° ESE 20:26:43 38° E 20:31:32 10° NNE
COSMO-SKYMED 1 3.7 20:23:04 10° NNE 20:27:24 47° NW 20:31:44 10° SW
Cosmos 1025 Rocket 3.7 20:23:34 10° NNE 20:27:34 36° E 20:28:12 34° E
Cosmos 1378 3.7 20:26:26 10° WSW 20:29:46 52° NNW 20:33:06 10° NE
H-2A R/B 4.1 20:29:56 34° E 20:31:00 42° ENE 20:35:00 10° NNW
PSLV R/B 4.3 20:29:29 29° E 20:31:26 61° NNE 20:35:31 10° WNW
COBE Rocket 4.2 20:30:23 33° ESE 20:32:30 55° ENE 20:37:25 10° NNW
Cosmos 1707 2.9 20:29:11 10° WNW 20:32:54 61° NNE 20:34:12 37° E
Cosmos 2058 Rocket 3.9 20:31:25 10° SW 20:35:46 52° NW 20:40:06 10° NNE
Cosmos 1703 Rocket 3.9 20:31:33 10° NNW 20:35:52 54° NE 20:37:23 36° ESE
Cosmos 1745 Rocket 4.1 20:30:53 10° NNW 20:37:05 66° NE 20:40:19 30° ESE
Meteor 2-5 Rocket 4.2 20:32:21 10° N 20:37:42 47° ENE 20:39:59 31° ESE
Cosmos 2228 4.4 20:34:21 10° SW 20:38:25 40° WNW 20:42:28 10° N
Okean 1-7 3.3 20:34:17 10° NW 20:38:30 56° NE 20:39:56 37° E
IRS-1D 4.2 20:37:52 32° ESE 20:38:43 33° E 20:43:17 10° NNE
Cosmos 1862 Rocket 3.9 20:35:31 10° NW 20:39:59 60° NNE 20:41:44 35° E
Cosmos 1484 Rocket 4.4 20:42:38 20° ENE 20:42:38 20° ENE 20:44:20 10° NE
Okean 2 3.7 20:37:26 10° NW 20:41:30 54° NE 20:42:46 38° E
Cosmos 1842 3.5 20:38:31 10° WNW 20:42:19 63° NNE 20:43:40 37° E
FENGYUN 3A 4.1 20:42:01 31° ESE 20:44:10 46° ENE 20:49:31 10° N
Helios 1A 4.2 20:41:04 10° NNE 20:45:07 44° NW 20:49:10 10° SW
IDEFIX/ARIANE 42P 3.0 20:43:31 32° ESE 20:45:40 49° NE 20:50:47 10° NNW
ADEOS II 2.6 20:45:01 32° ESE 20:47:00 45° ENE 20:52:09 10° N
Okean 1 3.6 20:43:12 10° W 20:47:05 63° NNW 20:49:26 22° ENE
Cosmos 2082 Rocket 4.2 20:44:15 10° NNW 20:48:22 21° NNE 20:52:30 10° ENE
SL-8 Rocket 4.3 20:43:09 10° N 20:49:18 50° E 20:52:25 28° SE
Cosmos 1703 3.7 20:45:43 10° NNW 20:49:21 43° ENE 20:49:54 40° E
Cosmos 2221 Rocket 4.1 20:45:10 10° N 20:49:29 44° ENE 20:50:35 37° ESE
MINOTAUR 4 R/B 4.2 20:49:09 42° NE 20:49:50 53° N 20:52:52 10° WNW
Cosmos 2242 Rocket 4.0 20:46:15 10° NNW 20:50:40 51° NE 20:52:02 37° ESE
Cosmos 1674 Rocket 4.1 20:47:39 10° N 20:51:53 44° ENE 20:52:54 38° E
Cosmos 1892 3.3 20:51:22 10° N 20:54:47 37° ENE 20:54:52 37° ENE
SL-24 DEB 4.2 20:52:41 27° SSE 20:55:20 75° E 21:00:09 10° N
KORONAS-FOTON 4.0 20:52:17 10° WNW 20:56:00 62° N 20:57:10 39° ENE
Cosmos 1408 2.9 20:53:08 10° NNW 20:56:07 40° NE 20:56:07 40° NE
ADEOS Rocket 4.1 20:52:00 10° SSW 20:55:01 22° SSE 20:55:01 22° SSE
Cosmos 1092 Rocket 4.1 20:51:02 10° W 20:57:17 78° N 21:01:32 22° E
Cosmos 2074 Rocket 4.2 20:51:05 10° NNW 20:57:20 59° ENE 21:00:29 30° SE
Cosmos 1812 3.9 20:55:01 10° SW 20:58:32 42° NW 21:02:02 10° NNE
SJ 16-02 3.0 20:55:14 10° N 20:58:33 21° NE 20:59:38 19° ENE
Cosmos 1812 Rocket 4.3 20:56:30 10° WSW 21:00:57 57° NW 21:05:27 10° NE
ASTEX 1 3.9 20:57:48 10° NNW 21:02:51 63° W 21:07:56 10° S
Cosmos 1707 Rocket 3.8 20:59:22 10° NW 21:03:44 63° NNE 21:05:18 38° E
Terra 3.5 21:03:16 10° SW 21:06:32 18° S 21:06:32 18° S
Cosmos 1378 Rocket 4.0 21:02:14 10° NNW 21:06:34 47° ENE 21:07:37 39° E
NPP 4.0 21:05:52 33° ESE 21:08:06 52° NE 21:13:28 10° NNW
Cosmos 1933 4.2 21:05:08 10° WSW 21:09:05 51° NW 21:13:02 10° NNE
Cosmos 1315 Rocket 3.4 21:05:58 10° NW 21:09:48 45° NE 21:10:42 38° ENE
Nadezhda 4 Rocket 4.1 21:04:26 10° W 21:10:43 77° NNW 21:15:37 17° ENE
Thor Agena Rocket 4.2 21:11:43 34° ESE 21:12:41 37° ENE 21:17:31 10° N
CZ-2C R/B 4.4 21:08:23 10° NW 21:13:21 30° WSW 21:18:15 10° S
H-2A R/B 2.3 21:12:08 36° ENE 21:13:32 55° NNE 21:17:38 10° WNW
Cosmos 2266 Rocket 4.0 21:07:42 10° WNW 21:13:58 77° NNE 21:17:20 29° E
Cosmos 2218 Rocket 4.2 21:07:58 10° N 21:14:04 51° E 21:17:10 29° SE
Cosmos 1151 Rocket 3.3 21:09:43 10° W 21:14:06 67° NNW 21:16:35 25° ENE
AQUA 4.3 21:13:02 36° E 21:14:21 45° ENE 21:19:01 10° NNW
Landsat 5 4.0 21:12:57 22° ENE 21:15:44 62° NNW 21:20:14 10° W
Cosmos 1934 Rocket 4.3 21:11:17 10° NNE 21:17:03 42° E 21:20:02 26° SSE
Cosmos 1782 3.8 21:14:19 10° SW 21:18:08 48° NW 21:21:56 10° NNE
CZ-2C R/B 3.2 21:16:51 37° E 21:18:19 49° NE 21:23:02 10° NNW
CZ-2C R/B 2.9 21:18:11 36° E 21:19:07 40° ENE 21:23:53 10° N
Cosmos 2184 Rocket 4.1 21:13:42 10° NNW 21:19:56 61° ENE 21:22:52 32° SE
Cosmos-2242 3.9 21:16:38 10° SW 21:20:52 50° NW 21:25:04 10° NNE
YAOGAN 6 3.9 21:22:36 24° NE 21:22:36 24° NE 21:24:29 10° N
Cosmos 1655 Rocket 4.1 21:15:34 10° WNW 21:21:54 77° NNE 21:25:14 30° E
SL-08 ROCKET BODY 4.4 21:17:09 10° WNW 21:23:07 77° NNE 21:26:14 30° E
Cosmos 1356 Rocket 3.8 21:19:11 10° NW 21:23:08 50° NNE 21:24:13 38° ENE
Cosmos 1328 Rocket 3.8 21:19:39 10° W 21:24:10 69° N 21:26:18 31° ENE
Meteor 1-24 Rocket 4.0 21:18:57 10° NNW 21:24:15 52° NE 21:26:20 34° ESE
Cosmos 1674 2.7 21:21:49 10° W 21:25:18 62° N 21:26:02 47° NE
Cosmos 2227 Rocket 4.1 21:23:35 10° NE 21:25:31 14° ENE 21:25:31 14° ENE
Cosmos 2100 Rocket 4.5 21:20:56 10° NE 21:26:41 37° ESE 21:32:29 10° S
ARIANE 5 R/B 3.4 21:27:41 30° E 21:27:41 30° E 21:31:40 10° NNE
Cosmos 1400 Rocket 3.3 21:25:47 10° WNW 21:29:36 51° NNE 21:30:39 39° ENE
Cosmos 2173 Rocket 4.4 21:24:51 10° NE 21:30:30 37° ESE 21:36:13 10° S
Cosmos 1515 Rocket 3.8 21:26:42 10° W 21:31:15 69° N 21:33:06 35° ENE
Cosmos 2154 Rocket 4.1 21:25:40 10° NNW 21:32:00 61° ENE 21:35:00 32° SE
Cosmos 1238 Rocket 3.9 21:29:31 10° SW 21:32:30 38° WNW 21:35:49 10° N
H-2A R/B 2.5 21:33:31 36° E 21:33:55 37° E 21:38:35 10° NNE
Cosmos 1626 2.2 21:31:22 10° W 21:34:40 59° N 21:35:20 47° NE
CZ-4C R/B 4.1 21:31:43 11° NE 21:35:37 51° NW 21:39:29 10° WSW
Cosmos 1242 Rocket 3.3 21:33:23 10° NNW 21:35:32 31° NNE 21:35:32 31° NNE
USA 32 4.1 21:32:07 10° WSW 21:37:30 85° NW 21:41:57 15° NE
Cosmos 1709 Rocket 4.0 21:32:27 10° NW 21:38:38 70° NE 21:41:28 34° ESE
GP-B 3.8 21:37:20 33° SSE 21:38:46 45° SSW 21:43:05 10° W
Cosmos 2228 Rocket 3.3 21:34:20 10° WNW 21:38:51 67° NNE 21:40:18 41° E
CZ-4 R/B 4.4 21:38:38 38° E 21:39:44 43° ENE 21:44:33 10° N
Cosmos 1939 Rocket 4.3 21:41:26 22° NE 21:41:26 22° NE 21:43:18 10° NNE
Iridium 51 3.9 21:37:02 10° WNW 21:40:29 68° SSW 21:40:49 63° SSE
Iridium 4 Rocket 4.0 21:37:54 10° SSW 21:43:28 72° W 21:49:21 10° N
Meteor 1-27 Rocket 4.3 21:37:42 10° WSW 21:43:35 61° NNW 21:48:52 13° NE
CRYOSAT 2 4.5 21:42:09 32° SSE 21:44:32 76° SW 21:49:33 10° NW
Cosmos 1842 Rocket 4.1 21:40:29 10° WSW 21:44:56 60° NW 21:48:51 13° NE
ARGOS 3.7 21:45:42 36° E 21:46:11 37° E 21:51:17 10° NNE
Iridium 921 4.4 21:42:43 10° N 21:46:15 64° ENE 21:46:15 64° ENE
Cosmos 1725 Rocket 4.5 21:45:03 31° E 21:46:48 36° ESE 21:52:27 10° S
Meteor 2-4 Rocket 4.0 21:41:30 10° W 21:46:54 62° NNW 21:50:34 21° ENE
PSLV R/B 3.8 21:45:47 40° ENE 21:47:13 64° N 21:51:39 10° WNW
Cosmos 1821 Rocket 4.2 21:41:32 10° N 21:47:47 52° ENE 21:51:01 28° SE
CZ-2D R/B 2.4 21:46:20 37° E 21:48:07 53° NE 21:53:20 10° NW
Cosmos 2297 Rocket 3.9 21:44:56 10° NNE 21:48:14 16° NE 21:48:14 16° NE
In-Cosmos 22 4.4 21:43:28 10° WNW 21:48:52 63° N 21:51:31 31° ENE
Cosmos 2366 rocket 4.1 21:43:08 10° N 21:49:13 55° ENE 21:52:05 31° SE
Cosmos 2026 Rocket 4.1 21:43:11 10° W 21:49:31 77° NNW 21:53:38 24° ENE
Resurs 1-4 Rocket 2.4 21:48:26 37° E 21:50:20 54° NE 21:55:41 10° NW
ALOS 2.6 21:50:24 42° E 21:51:24 49° NE 21:56:00 10° NNW
Cosmos 1066 Rocket 4.5 21:46:57 10° W 21:52:21 62° N 21:55:27 26° ENE
CZ-2C R/B 4.1 21:50:48 30° ENE 21:53:01 63° N 21:57:45 10° W
Cosmos 1340 Rocket 3.6 21:49:16 10° WSW 21:53:04 48° NNW 21:55:20 22° NE
Cosmos 2341 Rocket 4.2 21:46:57 10° N 21:53:17 58° ENE 21:56:22 31° SE
Cosmos 2221 3.3 21:49:31 10° WSW 21:53:44 53° NW 21:58:00 10° NNE
MSX 4.1 21:51:31 35° E 21:53:50 56° NE 21:59:37 10° NW
Resurs 01 Rocket 3.7 21:50:51 10° S 21:52:02 15° S 21:52:02 15° S
Cosmos 1975 Rocket 3.4 21:51:24 10° N 21:55:45 45° ENE 21:56:09 44° E
Okean 3 3.6 21:52:25 10° WNW 21:56:42 65° NNE 21:57:45 47° ENE
Tsikada Rocket 4.4 21:50:43 10° SW 21:57:02 68° NW 22:03:16 10° NE
Meteor 1-4 Rocket 3.0 21:54:19 10° NW 21:57:13 42° NNE 21:57:13 42° NNE
SAR-Lupe-4 4.3 21:57:50 40° NE 21:57:50 40° NE 22:01:04 10° NNW
Cosmos 1825 2.6 21:55:06 10° NNW 21:58:07 41° NNE 21:58:07 41° NNE
Cosmos 1605 Rocket 4.3 21:55:06 10° NNE 22:01:04 45° E 22:07:06 10° SSE
Iridium 82 4.4 21:57:29 10° NNW 22:01:10 71° ENE 22:01:20 69° E
SL-14 R/B 3.5 21:57:08 10° WNW 22:01:11 64° N 22:02:05 49° ENE
Cosmos 1459 Rocket 4.4 21:55:58 10° NE 22:01:44 39° ESE 22:07:26 10° S
Okean O Rocket 3.7 21:59:11 10° S 22:00:10 14° S 22:00:10 14° S
Cosmos 1378 4.3 22:00:01 10° SW 22:03:13 39° NW 22:06:26 10° NNE
Cosmos 1328 4.1 21:59:35 10° NNW 22:03:14 45° NE 22:03:14 45° NE
SL-16 R/B 4.3 21:58:08 10° NW 22:03:31 29° WSW 22:08:56 10° S
COSMO-SKYMED 1 4.3 22:00:14 10° N 22:04:22 36° WNW 22:08:30 10° SW
Cosmos 1025 Rocket 3.3 22:00:23 10° NNW 22:04:36 48° NE 22:05:00 46° ENE
Cosmos 1802 Rocket 4.4 21:59:00 10° NE 22:04:41 38° ESE 22:10:19 10° S
H-2A R/B 3.7 22:05:55 47° ENE 22:06:34 53° NE 22:10:40 10° NW
Envisat 3.3 22:05:26 41° E 22:06:39 48° ENE 22:11:41 10° NNW
PSLV R/B 4.2 22:05:28 38° NE 22:06:49 60° NNW 22:10:54 10° W
Cosmos 1707 2.9 22:04:02 10° W 22:07:47 64° N 22:08:29 51° NE
Meteor 1-23 Rocket 4.5 22:03:51 10° WNW 22:09:38 65° N 22:12:12 33° ENE
NOAA 11 4.5 22:09:02 39° ESE 22:10:34 49° ENE 22:15:55 10° NNW
COBE Rocket 4.0 22:09:47 42° E 22:11:27 67° NNE 22:16:26 10° NW
Cosmos 1703 Rocket 3.7 22:09:05 10° WNW 22:13:28 65° NNE 22:14:27 49° ENE
Cosmos 2016 Rocket 4.4 22:12:52 33° E 22:14:27 38° ESE 22:20:08 10° S
Okean 1-7 3.1 22:11:20 10° WNW 22:15:38 66° NNE 22:16:31 50° ENE
Cosmos 1484 Rocket 4.2 22:17:21 24° NNE 22:17:21 24° NNE 22:19:18 10° N
Cosmos 1842 3.4 22:13:35 10° W 22:17:24 64° N 22:18:10 50° NE
Cosmos 1862 Rocket 3.7 22:13:08 10° WNW 22:17:39 68° N 22:18:48 47° ENE
Okean 2 3.5 22:13:34 10° WNW 22:17:42 64° NNE 22:18:26 53° ENE
IRS-1D 3.8 22:18:18 41° E 22:18:56 43° ENE 22:23:46 10° NNW
Meteor 2-5 Rocket 3.9 22:15:06 10° NW 22:20:36 57° NE 22:22:25 39° E
MINOTAUR 4 R/B 4.2 22:21:16 50° N 22:21:24 50° NNW 22:24:26 10° W
Cosmos 1745 Rocket 4.0 22:16:03 10° WNW 22:22:19 75° NNE 22:24:58 37° E
Okean 1 3.9 22:18:50 10° WSW 22:22:40 53° NW 22:24:29 28° NNE
Cosmos 1536 Rocket 4.2 22:19:58 10° N 22:23:31 38° NE 22:23:31 38° NE
Cosmos 1703 3.3 22:20:34 10° NW 22:24:19 55° NNE 22:24:27 55° NE
FENGYUN 3A 3.9 22:23:33 40° E 22:25:17 57° NE 22:30:45 10° NW
IDEFIX/ARIANE 42P 2.8 22:24:17 41° E 22:25:54 59° NNE 22:31:08 10° NW
Cosmos 2221 Rocket 3.8 22:22:47 10° NW 22:27:15 57° NE 22:27:59 50° E
ADEOS II 2.3 22:25:54 41° E 22:27:27 56° NE 22:32:43 10° NW
Cosmos 2242 Rocket 3.7 22:24:03 10° NW 22:28:34 63° NNE 22:29:27 51° ENE
Cosmos 1408 2.9 22:25:37 10° NW 22:28:16 47° N 22:28:16 47° N
Cosmos 1892 3.0 22:25:29 10° NNW 22:28:48 48° NNE 22:28:48 48° NNE
Cosmos 1674 Rocket 3.7 22:24:55 10° NW 22:29:17 57° NE 22:29:55 51° ENE
Cosmos 1610 Rocket 4.5 22:24:06 10° NNW 22:30:15 66° NE 22:32:51 36° ESE
Cosmos 2082 Rocket 4.1 22:26:43 10° WNW 22:30:52 21° N 22:34:45 11° NE
KORONAS-FOTON 4.0 22:27:18 10° W 22:31:01 62° NNW 22:31:36 53° NNE
Cosmos 2061 Rocket 4.4 22:32:04 37° E 22:32:56 38° ESE 22:38:47 10° S
SL-24 DEB 4.3 22:30:50 30° SSE 22:33:15 83° WSW 22:38:05 10° NW
Nadezhda 2 Rocket 4.5 22:27:17 10° WNW 22:33:31 77° N 22:36:06 38° E
SL-8 Rocket 4.1 22:27:50 10° NNW 22:34:09 62° ENE 22:37:00 34° ESE
Cosmos 962 Rocket 4.5 22:29:39 10° NNW 22:35:47 64° NE 22:38:23 36° ESE
SJ 16-02 2.8 22:32:15 10° NW 22:35:50 24° NNE 22:36:23 23° NNE
Cosmos 1707 Rocket 3.7 22:37:00 10° W 22:41:24 68° N 22:42:21 51° ENE
ASTEX 1 4.4 22:37:32 10° NW 22:42:27 48° WSW 22:47:24 10° SSE
Cosmos 2074 Rocket 4.0 22:36:06 10° NW 22:42:28 71° NE 22:45:09 37° ESE
Cosmos 1092 Rocket 4.1 22:36:22 10° WSW 22:42:36 74° NNW 22:46:10 27° NE
Meteor 2-11 Rocket 4.5 22:37:08 10° NW 22:43:20 65° NE 22:45:47 38° ESE
Cosmos 2233 Rocket 4.4 22:43:37 38° ESE 22:43:53 38° ESE 22:49:33 10° S
Cosmos 1378 Rocket 3.7 22:39:30 10° NW 22:43:58 60° NE 22:44:35 54° ENE
ADEOS Rocket 4.1 22:38:56 10° S 22:41:56 24° SSE 22:41:56 24° SSE
Cosmos 1315 Rocket 3.1 22:41:44 10° WNW 22:45:38 52° NNE 22:45:59 50° NNE
Terra 3.5 22:42:25 10° SSW 22:45:14 19° SSE 22:45:14 19° SSE
NPP 3.8 22:47:22 42° E 22:49:02 61° NNE 22:54:30 10° WNW
H-2A R/B 2.2 22:48:56 48° NE 22:49:44 58° N 22:53:51 10° W
Landsat 5 4.2 22:49:10 27° NNE 22:51:23 54° NW 22:55:50 10° WSW
Cosmos 1151 Rocket 3.5 22:47:04 10° WSW 22:51:24 58° NW 22:53:19 31° NNE
AQUA 4.0 22:51:46 49° ENE 22:52:39 56° NE 22:57:25 10° NW
Thor Agena Rocket 3.8 22:52:16 44° ENE 22:52:57 47° NE 22:57:59 10° NNW
Meteor 1-11 4.4 22:47:29 10° NNW 22:52:59 50° NE 22:54:09 43° E
Cosmos 1782 4.4 22:49:46 10° SW 22:53:24 35° WNW 22:57:00 10° N
YAOGAN 6 3.9 22:55:44 27° N 22:55:44 27° N 22:57:32 10° NNW
Cosmos 2263 Rocket 4.3 22:51:38 10° NNE 22:52:00 11° NNE 22:52:00 11° NNE
PAYLOAD A 4.4 22:53:59 44° E 22:55:10 52° NE 23:00:28 10° NNW
Nadezhda 4 Rocket 4.2 22:49:40 10° WSW 22:55:54 69° NW 23:00:11 21° NE
Meteor 1-21 4.4 22:51:26 10° W 22:57:07 64° N 22:59:10 39° ENE
METEOR-M 4.3 22:56:38 44° E 22:57:52 54° NE 23:03:12 10° NNW
CZ-2C R/B 2.6 22:57:29 48° ENE 22:58:06 51° NE 23:03:03 10° NNW
CZ-2C R/B 3.0 22:57:52 49° ENE 22:58:50 60° NNE 23:03:39 10° NW
Cosmos 2218 Rocket 4.0 22:52:52 10° NNW 22:59:07 64° NE 23:01:55 34° ESE
Cosmos 2266 Rocket 4.0 22:52:59 10° W 22:59:15 77° NNW 23:01:53 37° ENE
Cosmos 1674 2.8 22:55:59 10° W 22:59:26 57° NNW 22:59:37 56° N
Cosmos 1356 Rocket 3.7 22:55:34 10° WNW 22:59:34 53° N 23:00:03 50° NNE
Cosmos 1934 Rocket 4.0 22:55:36 10° N 23:01:37 54° ENE 23:04:30 30° SE
Cosmos 1328 Rocket 4.0 22:57:14 10° WSW 23:01:44 62° NNW 23:03:17 38° NNE
Cosmos 1959 Rocket 4.5 22:57:00 10° NNW 23:03:13 64° NE 23:05:48 36° ESE
In-Cosmos 22 Rocket 4.3 22:57:54 10° NNW 23:03:14 51° NE 23:04:11 46° E
Cosmos 2184 Rocket 4.0 22:58:53 10° NW 23:05:11 72° NNE 23:07:37 39° ESE
Cosmos 1400 Rocket 3.2 23:01:30 10° W 23:05:21 52° N 23:05:49 49° NNE
Meteor 1-24 Rocket 3.8 23:01:32 10° NW 23:06:58 61° NNE 23:08:30 44° ENE
ARIANE 5 R/B 3.1 23:08:00 38° NE 23:08:00 38° NE 23:12:11 10° N
SL-08 ROCKET BODY 4.4 23:01:30 10° W 23:07:29 76° NNW 23:09:54 39° ENE
Cosmos 1655 Rocket 4.0 23:01:13 10° W 23:07:33 78° N 23:10:09 38° ENE
Cosmos 1242 Rocket 3.7 23:05:13 10° WNW 23:06:57 28° NW 23:06:57 28° NW
Cosmos 1626 2.4 23:04:45 10° WSW 23:08:01 50° NW 23:08:09 50° NNW
Cosmos 2227 Rocket 3.9 23:04:55 10° N 23:07:18 17° NNE 23:07:18 17° NNE
Cosmos 1515 Rocket 3.9 23:04:23 10° WSW 23:08:55 64° NNW 23:10:10 44° NE
Cosmos 2100 Rocket 4.2 23:05:11 10° NNE 23:11:13 47° E 23:17:19 10° SSE
H-2A R/B 2.1 23:14:05 48° ENE 23:14:15 48° ENE 23:19:07 10° NNW
Cosmos 2173 Rocket 4.2 23:08:59 10° NNE 23:14:55 46° E 23:20:56 10° SSE
Cosmos 1939 Rocket 4.3 23:16:52 25° N 23:16:52 25° N 23:18:47 10° N
GP-B 3.8 23:14:39 38° SSE 23:15:28 42° S 23:19:45 10° WSW
Iridium 51 4.2 23:13:01 10° WSW 23:16:12 62° SSW 23:16:12 62° SSW
Cosmos 2228 Rocket 3.2 23:12:22 10° W 23:16:54 68° N 23:17:43 54° NE
Cosmos 2154 Rocket 4.0 23:10:52 10° NW 23:17:16 73° NNE 23:19:46 39° ESE
USA 32 4.3 23:13:06 10° SW 23:18:26 71° WNW 23:22:26 18° NNE
CZ-4 R/B 4.1 23:17:45 49° ENE 23:18:27 53° NE 23:23:25 10° NW
Cosmos 1386 Rocket 4.4 23:13:50 10° W 23:20:00 78° N 23:22:16 42° E
SPOT 5 4.4 23:16:53 10° S 23:20:39 24° SE 23:20:39 24° SE
Iridium 4 Rocket 4.4 23:17:39 10° S 23:23:06 56° WSW 23:28:50 10° NNW
Cosmos 1709 Rocket 3.9 23:17:42 10° WNW 23:23:55 77° NNE 23:26:06 43° E
Cosmos 864 Rocket 4.4 23:17:44 10° NW 23:23:56 66° NE 23:26:21 38° ESE
PSLV R/B 3.8 23:23:24 52° NE 23:24:12 63° NNW 23:28:38 10° W
ARGOS 3.4 23:27:11 47° ENE 23:27:30 47° ENE 23:32:50 10° N
SL-24 R/B 4.2 23:27:48 57° NE 23:27:58 57° NNE 23:32:19 10° NW
Cosmos 1340 Rocket 4.0 23:25:03 10° WSW 23:28:44 38° NW 23:30:32 24° N
CZ-2D R/B 2.2 23:27:38 48° ENE 23:28:49 61° NNE 23:34:06 10° WNW
ALOS 2.3 23:28:42 56° ENE 23:29:14 60° NNE 23:33:55 10° NW
Meteor 2-4 Rocket 4.2 23:24:13 10° WSW 23:29:32 54° NW 23:32:37 25° NNE
Meteor 1-4 Rocket 3.4 23:26:58 10° WNW 23:29:20 38° NW 23:29:20 38° NW
CZ-2C R/B 4.2 23:28:56 36° NNE 23:30:34 56° NW 23:35:16 10° WSW
Cosmos 2297 Rocket 3.8 23:26:39 10° NNW 23:30:02 19° NNE 23:30:02 19° NNE
Cosmos 2221 3.8 23:26:36 10° SW 23:30:40 40° WNW 23:34:44 10° N
Resurs 1-4 Rocket 2.3 23:29:30 48° ENE 23:30:49 62° NNE 23:36:13 10° WNW
In-Cosmos 22 4.4 23:25:43 10° W 23:31:06 61° NNW 23:33:04 38° NE
Cosmos 1725 Rocket 4.2 23:29:41 38° ENE 23:31:16 45° E 23:37:13 10° SSE
CZ-4B R/B 4.5 23:26:25 10° S 23:29:58 25° SE 23:29:58 25° SE
SAR-Lupe-4 4.3 23:32:04 44° N 23:32:04 44° N 23:34:57 10° NW
Resurs 01 Rocket 3.7 23:28:19 10° S 23:29:32 16° SSE 23:29:32 16° SSE
Cosmos 1825 2.8 23:28:58 10° NW 23:31:39 43° NNW 23:31:39 43° NNW
Cosmos 1821 Rocket 4.0 23:26:18 10° NNW 23:32:44 65° NE 23:35:38 34° ESE
Cosmos 1975 Rocket 3.2 23:28:43 10° NW 23:33:12 58° NE 23:33:13 58° NE
Okean 3 3.5 23:29:12 10° W 23:33:30 67° N 23:33:56 62° NNE
Cosmos 2366 rocket 3.9 23:28:04 10° NW 23:34:17 68° NE 23:36:45 38° ESE
Cosmos 2026 Rocket 4.2 23:28:23 10° WSW 23:34:42 70° NW 23:38:10 29° NE
MSX 4.0 23:34:34 45° ENE 23:36:16 63° NNE 23:42:06 10° WNW
SL-14 R/B 3.4 23:32:55 10° W 23:36:59 63° NNW 23:37:16 61° N
Cosmos 2341 Rocket 4.0 23:32:09 10° NW 23:38:37 70° NE 23:41:15 38° ESE
Cosmos 1328 4.1 23:34:53 10° NW 23:38:11 52° N 23:38:11 52° N
Okean O Rocket 3.7 23:36:31 10° S 23:37:31 15° SSE 23:37:31 15° SSE
Cosmos 1025 Rocket 3.1 23:37:31 10° NW 23:41:48 60° NNE 23:41:48 60° NNE
H-2A R/B 3.5 23:41:54 60° NNE 23:41:59 60° N 23:46:08 10° WNW
PSLV R/B 4.4 23:41:27 45° N 23:42:15 53° NW 23:46:18 10° WSW
Cosmos 1707 3.0 23:38:55 10° WSW 23:42:38 57° NNW 23:42:47 56° NNW
SL-08 R/B 4.5 23:38:20 10° NNW 23:44:31 63° NE 23:47:23 33° ESE
CBERS-1 4.2 23:45:14 49° NE 23:45:16 49° NE 23:50:21 10° NNW
Cosmos 1605 Rocket 4.0 23:39:38 10° N 23:45:48 57° ENE 23:52:05 10° SE
Cosmos 1459 Rocket 4.1 23:40:06 10° N 23:46:09 49° E 23:52:07 10° SSE
Envisat 3.1 23:45:36 53° ENE 23:46:21 59° NNE 23:51:29 10° NW
Cosmos 1464 Rocket 4.5 23:49:27 38° ESE 23:49:27 38° ESE 23:55:03 10° S
Cosmos 1802 Rocket 4.1 23:43:25 10° NNE 23:49:23 48° E 23:55:18 10° SSE
Cosmos 1484 Rocket 4.3 23:52:05 25° NNW 23:52:05 25° NNW 23:53:54 10° NNW
COBE Rocket 3.9 23:49:12 56° ENE 23:50:14 74° N 23:55:16 10° WNW
Cosmos 1703 Rocket 3.5 23:46:45 10° W 23:51:10 68° N 23:51:32 64° NNE
NOAA 11 4.3 23:50:49 50° ENE 23:51:52 59° NNE 23:57:20 10° NW
Cosmos 1842 3.6 23:48:40 10° WSW 23:52:26 55° NW 23:52:40 54° NNW
Okean 1-7 3.0 23:48:31 10° W 23:52:48 67° N 23:53:06 65° NNE
Okean 2 3.4 23:49:49 10° W 23:53:58 66° N 23:54:06 66° N
Cosmos 1862 Rocket 3.6 23:50:49 10° W 23:55:20 67° NNW 23:55:52 60° NNE
